Time,TemperatureF,DewpointF,PressureIn,WindDirection,WindDirectionDegrees,WindSpeedMPH,WindSpeedGustMPH,Humidity,HourlyPrecipIn,Conditions,Clouds,dailyrainin,SolarRadiationWatts/m^2,SoftwareType,DateUTC
2013-02-15 00:04:00,19.4,10.6,30.18,NW,314,2.0,2.0,68,0.00,,,0.00,0,Wunderground v.1.15,2013-02-15 06:04:00,
2013-02-15 00:05:00,19.3,10.5,30.18,NW,314,1.0,2.0,68,0.00,,,0.00,0,Wunderground v.1.15,2013-02-15 06:05:00,
2013-02-15 00:06:00,19.3,10.5,30.18,WNW,296,1.0,4.0,68,0.00,,,0.00,0,Wunderground v.1.15,2013-02-15 06:06:00,
2013-02-15 00:09:00,19.2,10.4,30.18,NNW,329,2.0,4.0,68,0.00,,,0.00,0,Wunderground v.1.15,2013-02-15 06:09:00,
2013-02-15 00:10:00,19.2,10.4,30.18,NNW,329,2.0,2.0,68,0.00,,,0.00,0,Wunderground v.1.15,2013-02-15 06:10:00,
2013-02-15 00:11:00,19.2,10.4,30.18,NNW,329,2.0,2.0,68,0.00,,,0.00,0,Wunderground v.1.15,2013-02-15 06:11:00,
2013-02-15 00:15:00,19.1,10.3,30.18,WNW,300,2.0,7.0,68,0.00,,,0.00,0,Wunderground v.1.15,2013-02-15 06:15:00,
2013-02-15 00:16:00,19.1,10.3,30.18,WNW,299,2.0,7.0,68,0.00,,,0.00,0,Wunderground v.1.15,2013-02-15 06:16:00,
2013-02-15 00:17:00,19.0,10.2,30.18,NW,313,3.0,7.0,68,0.00,,,0.00,0,Wunderground v.1.15,2013-02-15 06:17:00,
2013-02-15 00:19:00,19.0,10.2,30.18,NW,313,2.0,7.0,68,0.00,,,0.00,0,Wunderground v.1.15,2013-02-15 06:19:00,
2013-02-15 00:21:00,19.0,10.2,30.18,NW,313,2.0,2.0,68,0.00,,,0.00,0,Wunderground v.1.15,2013-02-15 06:21:00,
2013-02-15 00:24:00,18.9,10.1,30.18,NW,315,2.0,3.0,68,0.00,,,0.00,0,Wunderground v.1.15,2013-02-15 06:24:00,
2013-02-15 00:26:00,18.9,10.1,30.18,NW,315,2.0,3.0,68,0.00,,,0.00,0,Wunderground v.1.15,2013-02-15 06:26:00,
2013-02-15 00:29:00,18.8,10.0,30.18,West,281,2.0,5.0,68,0.00,,,0.00,0,Wunderground v.1.15,2013-02-15 06:29:00,
2013-02-15 00:31:00,18.8,10.0,30.18,NW,320,3.0,4.0,68,0.00,,,0.00,0,Wunderground v.1.15,2013-02-15 06:31:00,
2013-02-15 00:34:00,18.8,10.0,30.18,WNW,296,3.0,4.0,68,0.00,,,0.00,0,Wunderground v.1.15,2013-02-15 06:34:00,
2013-02-15 00:35:00,18.7,9.9,30.18,NNW,338,3.0,4.0,68,0.00,,,0.00,0,Wunderground v.1.15,2013-02-15 06:35:00,
2013-02-15 00:36:00,18.8,10.0,30.18,NNW,338,3.0,4.0,68,0.00,,,0.00,0,Wunderground v.1.15,2013-02-15 06:36:00,
2013-02-15 00:40:00,18.6,9.8,30.18,NNW,342,3.0,5.0,68,0.00,,,0.00,0,Wunderground v.1.15,2013-02-15 06:40:00,
2013-02-15 00:42:00,18.6,9.8,30.18,NW,321,3.0,5.0,68,0.00,,,0.00,0,Wunderground v.1.15,2013-02-15 06:42:00,
2013-02-15 00:45:00,18.5,9.4,30.18,NW,307,3.0,5.0,67,0.00,,,0.00,0,Wunderground v.1.15,2013-02-15 06:45:00,
2013-02-15 00:46:00,18.5,9.4,30.18,NW,307,3.0,5.0,67,0.00,,,0.00,0,Wunderground v.1.15,2013-02-15 06:46:00,
2013-02-15 00:52:00,18.3,9.2,30.18,NW,307,2.0,2.0,67,0.00,,,0.00,0,Wunderground v.1.15,2013-02-15 06:52:00,
2013-02-15 00:53:00,18.2,9.4,30.19,NW,307,2.0,3.0,68,0.00,,,0.00,0,Wunderground v.1.15,2013-02-15 06:53:00,
2013-02-15 00:54:00,18.2,9.4,30.18,NW,307,2.0,3.0,68,0.00,,,0.00,0,Wunderground v.1.15,2013-02-15 06:54:00,
2013-02-15 00:59:00,18.0,9.2,30.19,NW,307,1.0,3.0,68,0.00,,,0.00,0,Wunderground v.1.15,2013-02-15 06:59:00,
2013-02-15 01:04:00,17.9,9.1,30.19,NW,307,1.0,2.0,68,0.00,,,0.00,0,Wunderground v.1.15,2013-02-15 07:04:00,
2013-02-15 01:05:00,17.9,9.1,30.19,NW,307,1.0,2.0,68,0.00,,,0.00,0,Wunderground v.1.15,2013-02-15 07:05:00,
2013-02-15 01:08:00,17.7,8.9,30.19,NW,307,1.0,2.0,68,0.00,,,0.00,0,Wunderground v.1.15,2013-02-15 07:08:00,
2013-02-15 01:09:00,17.8,9.0,30.19,NW,307,1.0,2.0,68,0.00,,,0.00,0,Wunderground v.1.15,2013-02-15 07:09:00,
2013-02-15 01:10:00,17.7,8.9,30.19,NW,307,1.0,1.0,68,0.00,,,0.00,0,Wunderground v.1.15,2013-02-15 07:10:00,
2013-02-15 01:11:00,17.7,8.9,30.19,NW,307,1.0,2.0,68,0.00,,,0.00,0,Wunderground v.1.15,2013-02-15 07:11:00,
2013-02-15 01:16:00,17.6,8.8,30.19,NW,307,1.0,2.0,68,0.00,,,0.00,0,Wunderground v.1.15,2013-02-15 07:16:00,
2013-02-15 01:19:00,17.5,8.7,30.19,NW,307,1.0,3.0,68,0.00,,,0.00,0,Wunderground v.1.15,2013-02-15 07:19:00,
2013-02-15 01:20:00,17.5,8.7,30.19,NW,307,1.0,1.0,68,0.00,,,0.00,0,Wunderground v.1.15,2013-02-15 07:20:00,
2013-02-15 01:21:00,17.4,9.0,30.19,NW,307,1.0,1.0,69,0.00,,,0.00,0,Wunderground v.1.15,2013-02-15 07:21:00,
2013-02-15 01:22:00,17.4,8.6,30.19,NW,307,1.0,1.0,68,0.00,,,0.00,0,Wunderground v.1.15,2013-02-15 07:22:00,
2013-02-15 01:28:00,17.1,8.7,30.19,NW,307,1.0,2.0,69,0.00,,,0.00,0,Wunderground v.1.15,2013-02-15 07:28:00,
2013-02-15 01:30:00,17.1,8.7,30.19,NW,307,1.0,1.0,69,0.00,,,0.00,0,Wunderground v.1.15,2013-02-15 07:30:00,
2013-02-15 01:34:00,17.0,8.6,30.19,NW,307,0.0,1.0,69,0.00,,,0.00,0,Wunderground v.1.15,2013-02-15 07:34:00,
2013-02-15 01:35:00,17.0,8.6,30.19,NW,307,0.0,1.0,69,0.00,,,0.00,0,Wunderground v.1.15,2013-02-15 07:35:00,
2013-02-15 01:36:00,17.0,8.6,30.19,NW,307,0.0,1.0,69,0.00,,,0.00,0,Wunderground v.1.15,2013-02-15 07:36:00,
2013-02-15 01:37:00,17.0,8.6,30.19,NW,307,0.0,1.0,69,0.00,,,0.00,0,Wunderground v.1.15,2013-02-15 07:37:00,
2013-02-15 01:40:00,17.0,8.6,30.19,NW,307,0.0,0.0,69,0.00,,,0.00,0,Wunderground v.1.15,2013-02-15 07:40:00,
2013-02-15 01:42:00,16.9,8.5,30.19,NW,307,0.0,1.0,69,0.00,,,0.00,0,Wunderground v.1.15,2013-02-15 07:42:00,
2013-02-15 01:44:00,16.9,8.5,30.20,NW,307,0.0,1.0,69,0.00,,,0.00,0,Wunderground v.1.15,2013-02-15 07:44:00,
2013-02-15 01:45:00,16.8,8.4,30.19,NW,307,0.0,1.0,69,0.00,,,0.00,0,Wunderground v.1.15,2013-02-15 07:45:00,
2013-02-15 01:47:00,16.9,8.5,30.20,NW,307,0.0,1.0,69,0.00,,,0.00,0,Wunderground v.1.15,2013-02-15 07:47:00,
2013-02-15 01:50:00,16.8,8.4,30.20,NW,307,0.0,0.0,69,0.00,,,0.00,0,Wunderground v.1.15,2013-02-15 07:50:00,
2013-02-15 01:51:00,16.8,8.4,30.20,NW,307,0.0,3.0,69,0.00,,,0.00,0,Wunderground v.1.15,2013-02-15 07:51:00,
2013-02-15 01:52:00,16.8,8.4,30.20,NW,307,0.0,4.0,69,0.00,,,0.00,0,Wunderground v.1.15,2013-02-15 07:52:00,
2013-02-15 01:53:00,16.8,8.1,30.20,NW,307,1.0,4.0,68,0.00,,,0.00,0,Wunderground v.1.15,2013-02-15 07:53:00,
2013-02-15 01:55:00,16.8,8.1,30.20,NW,307,1.0,4.0,68,0.00,,,0.00,0,Wunderground v.1.15,2013-02-15 07:55:00,
2013-02-15 01:59:00,16.7,8.0,30.20,NW,307,1.0,4.0,68,0.00,,,0.00,0,Wunderground v.1.15,2013-02-15 07:59:00,
2013-02-15 02:00:00,16.7,8.0,30.20,NW,307,1.0,1.0,68,0.00,,,0.00,0,Wunderground v.1.15,2013-02-15 08:00:00,
2013-02-15 02:04:00,16.7,8.0,30.20,NW,307,0.0,2.0,68,0.00,,,0.00,0,Wunderground v.1.15,2013-02-15 08:04:00,
2013-02-15 02:08:00,16.6,7.9,30.20,NW,307,1.0,3.0,68,0.00,,,0.00,0,Wunderground v.1.15,2013-02-15 08:08:00,
2013-02-15 02:10:00,16.6,7.9,30.20,NW,307,1.0,1.0,68,0.00,,,0.00,0,Wunderground v.1.15,2013-02-15 08:10:00,
2013-02-15 02:11:00,16.6,7.9,30.20,NW,307,1.0,2.0,68,0.00,,,0.00,0,Wunderground v.1.15,2013-02-15 08:11:00,
2013-02-15 02:15:00,16.5,7.4,30.21,NW,307,1.0,2.0,67,0.00,,,0.00,0,Wunderground v.1.15,2013-02-15 08:15:00,
2013-02-15 02:17:00,16.4,7.7,30.21,NW,307,0.0,3.0,68,0.00,,,0.00,0,Wunderground v.1.15,2013-02-15 08:17:00,
2013-02-15 02:20:00,16.4,7.3,30.21,NW,308,1.0,1.0,67,0.00,,,0.00,0,Wunderground v.1.15,2013-02-15 08:20:00,
2013-02-15 02:22:00,16.4,7.7,30.21,NW,308,1.0,2.0,68,0.00,,,0.00,0,Wunderground v.1.15,2013-02-15 08:22:00,
2013-02-15 02:24:00,16.4,7.3,30.21,NW,308,1.0,2.0,67,0.00,,,0.00,0,Wunderground v.1.15,2013-02-15 08:24:00,
2013-02-15 02:25:00,16.4,7.3,30.21,NW,308,1.0,2.0,67,0.00,,,0.00,0,Wunderground v.1.15,2013-02-15 08:25:00,
2013-02-15 02:26:00,16.4,7.3,30.21,NW,308,1.0,2.0,67,0.00,,,0.00,0,Wunderground v.1.15,2013-02-15 08:26:00,
2013-02-15 02:31:00,16.3,7.3,30.22,NW,312,1.0,2.0,67,0.00,,,0.00,0,Wunderground v.1.15,2013-02-15 08:31:00,
2013-02-15 02:33:00,16.3,7.3,30.22,NW,312,1.0,5.0,67,0.00,,,0.00,0,Wunderground v.1.15,2013-02-15 08:33:00,
2013-02-15 02:34:00,16.3,7.3,30.22,NW,314,2.0,6.0,67,0.00,,,0.00,0,Wunderground v.1.15,2013-02-15 08:34:00,
2013-02-15 02:35:00,16.3,7.3,30.22,NW,318,2.0,6.0,67,0.00,,,0.00,0,Wunderground v.1.15,2013-02-15 08:35:00,
2013-02-15 02:36:00,16.3,7.3,30.22,NW,318,2.0,6.0,67,0.00,,,0.00,0,Wunderground v.1.15,2013-02-15 08:36:00,
2013-02-15 02:39:00,16.3,7.3,30.22,NW,318,2.0,6.0,67,0.00,,,0.00,0,Wunderground v.1.15,2013-02-15 08:39:00,
2013-02-15 02:41:00,16.2,7.2,30.22,NW,318,2.0,2.0,67,0.00,,,0.00,0,Wunderground v.1.15,2013-02-15 08:41:00,
2013-02-15 02:42:00,16.2,7.2,30.22,NNW,331,2.0,5.0,67,0.00,,,0.00,0,Wunderground v.1.15,2013-02-15 08:42:00,
2013-02-15 02:47:00,16.2,7.2,30.22,WNW,289,1.0,5.0,67,0.00,,,0.00,0,Wunderground v.1.15,2013-02-15 08:47:00,
2013-02-15 02:49:00,16.2,7.2,30.22,WNW,289,1.0,5.0,67,0.00,,,0.00,0,Wunderground v.1.15,2013-02-15 08:49:00,
2013-02-15 02:51:00,16.2,6.8,30.22,WNW,289,1.0,1.0,66,0.00,,,0.00,0,Wunderground v.1.15,2013-02-15 08:51:00,
2013-02-15 02:53:00,16.2,6.8,30.22,WNW,289,1.0,2.0,66,0.00,,,0.00,0,Wunderground v.1.15,2013-02-15 08:53:00,
2013-02-15 02:55:00,16.1,6.7,30.22,WNW,289,1.0,2.0,66,0.00,,,0.00,0,Wunderground v.1.15,2013-02-15 08:55:00,
2013-02-15 02:56:00,16.1,6.7,30.22,WNW,289,1.0,2.0,66,0.00,,,0.00,0,Wunderground v.1.15,2013-02-15 08:56:00,
2013-02-15 02:58:00,16.0,6.6,30.22,WNW,289,1.0,2.0,66,0.00,,,0.00,0,Wunderground v.1.15,2013-02-15 08:58:00,
2013-02-15 03:01:00,15.8,6.4,30.22,WNW,289,0.0,0.0,66,0.00,,,0.00,0,Wunderground v.1.15,2013-02-15 09:01:00,
2013-02-15 03:02:00,15.8,6.4,30.23,WNW,289,0.0,0.0,66,0.00,,,0.00,0,Wunderground v.1.15,2013-02-15 09:02:00,
2013-02-15 03:04:00,15.7,6.7,30.23,WNW,289,0.0,0.0,67,0.00,,,0.00,0,Wunderground v.1.15,2013-02-15 09:04:00,
2013-02-15 03:06:00,15.6,6.6,30.23,WNW,289,0.0,0.0,67,0.00,,,0.00,0,Wunderground v.1.15,2013-02-15 09:06:00,
2013-02-15 03:07:00,15.5,6.5,30.23,WNW,289,0.0,0.0,67,0.00,,,0.00,0,Wunderground v.1.15,2013-02-15 09:07:00,
2013-02-15 03:09:00,15.2,6.2,30.23,WNW,289,0.0,0.0,67,0.00,,,0.00,0,Wunderground v.1.15,2013-02-15 09:09:00,
2013-02-15 03:11:00,15.1,6.4,30.23,WNW,289,0.0,0.0,68,0.00,,,0.00,0,Wunderground v.1.15,2013-02-15 09:11:00,
2013-02-15 03:12:00,15.1,6.4,30.23,WNW,289,0.0,1.0,68,0.00,,,0.00,0,Wunderground v.1.15,2013-02-15 09:12:00,
2013-02-15 03:13:00,15.1,6.8,30.23,WNW,289,0.0,1.0,69,0.00,,,0.00,0,Wunderground v.1.15,2013-02-15 09:13:00,
2013-02-15 03:17:00,14.8,6.5,30.23,WNW,289,1.0,3.0,69,0.00,,,0.00,0,Wunderground v.1.15,2013-02-15 09:17:00,
2013-02-15 03:19:00,14.8,6.5,30.23,WNW,289,1.0,3.0,69,0.00,,,0.00,0,Wunderground v.1.15,2013-02-15 09:19:00,
2013-02-15 03:22:00,14.9,6.6,30.23,WNW,289,2.0,3.0,69,0.00,,,0.00,0,Wunderground v.1.15,2013-02-15 09:22:00,
2013-02-15 03:24:00,14.9,6.6,30.23,WNW,289,2.0,3.0,69,0.00,,,0.00,0,Wunderground v.1.15,2013-02-15 09:24:00,
2013-02-15 03:25:00,14.9,6.6,30.23,WNW,289,1.0,3.0,69,0.00,,,0.00,0,Wunderground v.1.15,2013-02-15 09:25:00,
2013-02-15 03:27:00,14.9,6.6,30.23,WNW,289,1.0,3.0,69,0.00,,,0.00,0,Wunderground v.1.15,2013-02-15 09:27:00,
2013-02-15 03:31:00,14.5,6.2,30.23,WNW,289,1.0,1.0,69,0.00,,,0.00,0,Wunderground v.1.15,2013-02-15 09:31:00,
2013-02-15 03:32:00,14.4,6.1,30.23,WNW,289,0.0,1.0,69,0.00,,,0.00,0,Wunderground v.1.15,2013-02-15 09:32:00,
2013-02-15 03:34:00,14.2,6.2,30.23,WNW,289,0.0,1.0,70,0.00,,,0.00,0,Wunderground v.1.15,2013-02-15 09:34:00,
2013-02-15 03:36:00,14.0,6.0,30.23,WNW,289,0.0,1.0,70,0.00,,,0.00,0,Wunderground v.1.15,2013-02-15 09:36:00,
2013-02-15 03:39:00,14.1,6.1,30.23,WNW,289,0.0,1.0,70,0.00,,,0.00,0,Wunderground v.1.15,2013-02-15 09:39:00,
2013-02-15 03:42:00,14.3,6.6,30.23,WNW,289,0.0,0.0,71,0.00,,,0.00,0,Wunderground v.1.15,2013-02-15 09:42:00,
2013-02-15 03:45:00,14.2,6.2,30.23,WNW,289,0.0,1.0,70,0.00,,,0.00,0,Wunderground v.1.15,2013-02-15 09:45:00,
2013-02-15 03:47:00,14.3,6.3,30.23,WNW,289,0.0,1.0,70,0.00,,,0.00,0,Wunderground v.1.15,2013-02-15 09:47:00,
2013-02-15 03:49:00,14.3,6.3,30.23,WNW,289,1.0,2.0,70,0.00,,,0.00,0,Wunderground v.1.15,2013-02-15 09:49:00,
2013-02-15 03:54:00,14.2,6.2,30.24,WNW,289,2.0,2.0,70,0.00,,,0.00,0,Wunderground v.1.15,2013-02-15 09:54:00,
2013-02-15 03:55:00,14.2,6.2,30.24,WNW,289,2.0,3.0,70,0.00,,,0.00,0,Wunderground v.1.15,2013-02-15 09:55:00,
2013-02-15 03:59:00,14.1,6.1,30.24,WNW,289,2.0,3.0,70,0.00,,,0.00,0,Wunderground v.1.15,2013-02-15 09:59:00,
2013-02-15 04:00:00,14.0,6.0,30.24,WNW,289,2.0,2.0,70,0.00,,,0.00,0,Wunderground v.1.15,2013-02-15 10:00:00,
2013-02-15 04:01:00,14.0,6.0,30.24,WNW,289,2.0,2.0,70,0.00,,,0.00,0,Wunderground v.1.15,2013-02-15 10:01:00,
2013-02-15 04:04:00,14.0,6.0,30.24,WNW,289,2.0,2.0,70,0.00,,,0.00,0,Wunderground v.1.15,2013-02-15 10:04:00,
2013-02-15 04:06:00,14.0,6.0,30.24,WNW,289,1.0,2.0,70,0.00,,,0.00,0,Wunderground v.1.15,2013-02-15 10:06:00,
2013-02-15 04:07:00,14.0,6.0,30.24,WNW,289,2.0,2.0,70,0.00,,,0.00,0,Wunderground v.1.15,2013-02-15 10:07:00,
2013-02-15 04:10:00,13.9,5.9,30.24,WNW,289,1.0,1.0,70,0.00,,,0.00,0,Wunderground v.1.15,2013-02-15 10:10:00,
2013-02-15 04:13:00,13.4,5.7,30.24,WNW,289,1.0,1.0,71,0.00,,,0.00,0,Wunderground v.1.15,2013-02-15 10:13:00,
2013-02-15 04:14:00,13.4,5.7,30.24,WNW,289,0.0,1.0,71,0.00,,,0.00,0,Wunderground v.1.15,2013-02-15 10:14:00,
2013-02-15 04:15:00,13.2,5.9,30.24,WNW,289,0.0,1.0,72,0.00,,,0.00,0,Wunderground v.1.15,2013-02-15 10:15:00,
2013-02-15 04:18:00,12.7,5.7,30.23,WNW,289,0.0,1.0,73,0.00,,,0.00,0,Wunderground v.1.15,2013-02-15 10:18:00,
2013-02-15 04:19:00,12.6,5.6,30.24,WNW,289,0.0,1.0,73,0.00,,,0.00,0,Wunderground v.1.15,2013-02-15 10:19:00,
2013-02-15 04:20:00,12.4,5.4,30.24,WNW,289,0.0,0.0,73,0.00,,,0.00,0,Wunderground v.1.15,2013-02-15 10:20:00,
2013-02-15 04:22:00,12.3,5.6,30.24,WNW,289,0.0,0.0,74,0.00,,,0.00,0,Wunderground v.1.15,2013-02-15 10:22:00,
2013-02-15 04:25:00,12.2,5.8,30.24,WNW,289,0.0,0.0,75,0.00,,,0.00,0,Wunderground v.1.15,2013-02-15 10:25:00,
2013-02-15 04:28:00,12.4,6.0,30.25,WNW,289,0.0,1.0,75,0.00,,,0.00,0,Wunderground v.1.15,2013-02-15 10:28:00,
2013-02-15 04:29:00,12.4,6.0,30.25,WNW,289,0.0,1.0,75,0.00,,,0.00,0,Wunderground v.1.15,2013-02-15 10:29:00,
2013-02-15 04:31:00,12.4,6.0,30.25,WNW,289,0.0,0.0,75,0.00,,,0.00,0,Wunderground v.1.15,2013-02-15 10:31:00,
2013-02-15 04:33:00,12.1,5.7,30.25,WNW,289,0.0,0.0,75,0.00,,,0.00,0,Wunderground v.1.15,2013-02-15 10:33:00,
2013-02-15 04:35:00,11.9,5.8,30.25,WNW,289,0.0,0.0,76,0.00,,,0.00,0,Wunderground v.1.15,2013-02-15 10:35:00,
2013-02-15 04:39:00,12.1,6.0,30.24,WNW,289,0.0,1.0,76,0.00,,,0.00,0,Wunderground v.1.15,2013-02-15 10:39:00,
2013-02-15 04:41:00,11.9,5.5,30.24,WNW,289,0.0,0.0,75,0.00,,,0.00,0,Wunderground v.1.15,2013-02-15 10:41:00,
2013-02-15 04:42:00,11.7,5.3,30.24,WNW,289,0.0,0.0,75,0.00,,,0.00,0,Wunderground v.1.15,2013-02-15 10:42:00,
2013-02-15 04:43:00,11.4,5.0,30.24,WNW,289,0.0,0.0,75,0.00,,,0.00,0,Wunderground v.1.15,2013-02-15 10:43:00,
2013-02-15 04:47:00,11.0,5.2,30.24,WNW,289,0.0,0.0,77,0.00,,,0.00,0,Wunderground v.1.15,2013-02-15 10:47:00,
2013-02-15 04:48:00,10.9,5.1,30.24,WNW,289,0.0,0.0,77,0.00,,,0.00,0,Wunderground v.1.15,2013-02-15 10:48:00,
2013-02-15 04:49:00,10.9,5.4,30.25,WNW,289,0.0,0.0,78,0.00,,,0.00,0,Wunderground v.1.15,2013-02-15 10:49:00,
2013-02-15 04:50:00,10.9,5.4,30.25,WNW,289,0.0,0.0,78,0.00,,,0.00,0,Wunderground v.1.15,2013-02-15 10:50:00,
2013-02-15 04:54:00,10.4,4.9,30.25,WNW,289,0.0,0.0,78,0.00,,,0.00,0,Wunderground v.1.15,2013-02-15 10:54:00,
2013-02-15 04:55:00,10.3,4.8,30.25,WNW,289,0.0,0.0,78,0.00,,,0.00,0,Wunderground v.1.15,2013-02-15 10:55:00,
2013-02-15 04:58:00,10.0,4.5,30.24,WNW,289,0.0,0.0,78,0.00,,,0.00,0,Wunderground v.1.15,2013-02-15 10:58:00,
2013-02-15 05:00:00,10.0,4.8,30.24,WNW,289,0.0,0.0,79,0.00,,,0.00,0,Wunderground v.1.15,2013-02-15 11:00:00,
2013-02-15 05:01:00,9.9,4.7,30.24,WNW,289,0.0,0.0,79,0.00,,,0.00,0,Wunderground v.1.15,2013-02-15 11:01:00,
2013-02-15 05:04:00,9.6,4.4,30.25,WNW,289,0.0,0.0,79,0.00,,,0.00,0,Wunderground v.1.15,2013-02-15 11:04:00,
2013-02-15 05:05:00,9.6,4.4,30.25,WNW,289,0.0,0.0,79,0.00,,,0.00,0,Wunderground v.1.15,2013-02-15 11:05:00,
2013-02-15 05:06:00,9.4,4.2,30.25,WNW,289,0.0,0.0,79,0.00,,,0.00,0,Wunderground v.1.15,2013-02-15 11:06:00,
2013-02-15 05:12:00,9.0,4.1,30.25,WNW,289,0.0,2.0,80,0.00,,,0.00,0,Wunderground v.1.15,2013-02-15 11:12:00,
2013-02-15 05:13:00,8.9,4.0,30.25,WNW,289,0.0,2.0,80,0.00,,,0.00,0,Wunderground v.1.15,2013-02-15 11:13:00,
2013-02-15 05:14:00,8.9,4.0,30.25,WNW,289,0.0,2.0,80,0.00,,,0.00,0,Wunderground v.1.15,2013-02-15 11:14:00,
2013-02-15 05:16:00,8.7,3.8,30.25,WNW,289,1.0,2.0,80,0.00,,,0.00,0,Wunderground v.1.15,2013-02-15 11:16:00,
2013-02-15 05:21:00,8.7,3.8,30.25,WNW,289,0.0,1.0,80,0.00,,,0.00,0,Wunderground v.1.15,2013-02-15 11:21:00,
2013-02-15 05:22:00,8.8,3.9,30.25,WNW,289,0.0,1.0,80,0.00,,,0.00,0,Wunderground v.1.15,2013-02-15 11:22:00,
2013-02-15 05:23:00,8.8,4.2,30.25,WNW,289,0.0,1.0,81,0.00,,,0.00,0,Wunderground v.1.15,2013-02-15 11:23:00,
2013-02-15 05:26:00,8.7,4.1,30.25,WNW,289,0.0,1.0,81,0.00,,,0.00,0,Wunderground v.1.15,2013-02-15 11:26:00,
2013-02-15 05:27:00,8.7,4.1,30.26,WNW,289,0.0,1.0,81,0.00,,,0.00,0,Wunderground v.1.15,2013-02-15 11:27:00,
2013-02-15 05:29:00,8.7,4.1,30.26,WNW,289,0.0,1.0,81,0.00,,,0.00,0,Wunderground v.1.15,2013-02-15 11:29:00,
2013-02-15 05:30:00,8.6,4.0,30.26,WNW,289,0.0,2.0,81,0.00,,,0.00,0,Wunderground v.1.15,2013-02-15 11:30:00,
2013-02-15 05:33:00,8.6,4.0,30.26,WNW,289,0.0,2.0,81,0.00,,,0.00,0,Wunderground v.1.15,2013-02-15 11:33:00,
2013-02-15 05:34:00,8.5,3.9,30.26,WNW,289,0.0,2.0,81,0.00,,,0.00,0,Wunderground v.1.15,2013-02-15 11:34:00,
2013-02-15 05:35:00,8.5,3.9,30.26,WNW,289,0.0,2.0,81,0.00,,,0.00,0,Wunderground v.1.15,2013-02-15 11:35:00,
2013-02-15 05:37:00,8.4,3.8,30.26,WNW,289,0.0,2.0,81,0.00,,,0.00,0,Wunderground v.1.15,2013-02-15 11:37:00,
2013-02-15 05:39:00,8.3,3.7,30.26,WNW,289,0.0,2.0,81,0.00,,,0.00,0,Wunderground v.1.15,2013-02-15 11:39:00,
2013-02-15 05:40:00,8.3,3.7,30.26,WNW,289,0.0,0.0,81,0.00,,,0.00,0,Wunderground v.1.15,2013-02-15 11:40:00,
2013-02-15 05:45:00,7.8,3.2,30.26,WNW,289,0.0,0.0,81,0.00,,,0.00,0,Wunderground v.1.15,2013-02-15 11:45:00,
2013-02-15 05:46:00,7.7,3.1,30.26,WNW,289,0.0,0.0,81,0.00,,,0.00,0,Wunderground v.1.15,2013-02-15 11:46:00,
2013-02-15 05:47:00,7.7,3.1,30.26,WNW,289,0.0,0.0,81,0.00,,,0.00,0,Wunderground v.1.15,2013-02-15 11:47:00,
2013-02-15 05:49:00,7.6,3.3,30.26,WNW,289,0.0,0.0,82,0.00,,,0.00,0,Wunderground v.1.15,2013-02-15 11:49:00,
2013-02-15 05:52:00,7.5,3.2,30.26,WNW,289,0.0,0.0,82,0.00,,,0.00,0,Wunderground v.1.15,2013-02-15 11:52:00,
2013-02-15 05:54:00,7.5,3.2,30.26,WNW,289,0.0,1.0,82,0.00,,,0.00,0,Wunderground v.1.15,2013-02-15 11:54:00,
2013-02-15 05:57:00,7.4,3.1,30.26,WNW,289,0.0,1.0,82,0.00,,,0.00,0,Wunderground v.1.15,2013-02-15 11:57:00,
2013-02-15 05:58:00,7.4,3.3,30.26,WNW,289,0.0,1.0,83,0.00,,,0.00,0,Wunderground v.1.15,2013-02-15 11:58:00,
2013-02-15 06:02:00,7.4,3.3,30.26,WNW,289,0.0,1.0,83,0.00,,,0.00,0,Wunderground v.1.15,2013-02-15 12:02:00,
2013-02-15 06:03:00,7.4,3.3,30.26,WNW,289,0.0,2.0,83,0.00,,,0.00,0,Wunderground v.1.15,2013-02-15 12:03:00,
2013-02-15 06:06:00,7.3,3.0,30.26,WNW,289,1.0,2.0,82,0.00,,,0.00,0,Wunderground v.1.15,2013-02-15 12:06:00,
2013-02-15 06:09:00,7.2,2.9,30.26,WNW,289,1.0,2.0,82,0.00,,,0.00,0,Wunderground v.1.15,2013-02-15 12:09:00,
2013-02-15 06:10:00,7.2,2.9,30.27,WNW,289,1.0,1.0,82,0.00,,,0.00,0,Wunderground v.1.15,2013-02-15 12:10:00,
2013-02-15 06:11:00,7.1,2.8,30.27,WNW,289,1.0,1.0,82,0.00,,,0.00,0,Wunderground v.1.15,2013-02-15 12:11:00,
2013-02-15 06:13:00,7.0,2.7,30.27,WNW,289,1.0,1.0,82,0.00,,,0.00,0,Wunderground v.1.15,2013-02-15 12:13:00,
2013-02-15 06:15:00,7.0,2.7,30.27,WNW,289,0.0,1.0,82,0.00,,,0.00,0,Wunderground v.1.15,2013-02-15 12:15:00,
2013-02-15 06:16:00,7.0,2.7,30.27,WNW,289,0.0,1.0,82,0.00,,,0.00,0,Wunderground v.1.15,2013-02-15 12:16:00,
2013-02-15 06:19:00,6.9,2.6,30.27,WNW,289,0.0,1.0,82,0.00,,,0.00,0,Wunderground v.1.15,2013-02-15 12:19:00,
2013-02-15 06:22:00,6.8,2.5,30.27,WNW,289,1.0,2.0,82,0.00,,,0.00,0,Wunderground v.1.15,2013-02-15 12:22:00,
2013-02-15 06:25:00,6.7,2.4,30.27,WNW,289,1.0,2.0,82,0.00,,,0.00,0,Wunderground v.1.15,2013-02-15 12:25:00,
2013-02-15 06:28:00,6.7,2.6,30.27,WNW,289,1.0,2.0,83,0.00,,,0.00,0,Wunderground v.1.15,2013-02-15 12:28:00,
2013-02-15 06:30:00,6.7,2.6,30.27,WNW,289,0.0,0.0,83,0.00,,,0.00,0,Wunderground v.1.15,2013-02-15 12:30:00,
2013-02-15 06:32:00,6.6,2.5,30.27,WNW,289,0.0,1.0,83,0.00,,,0.00,0,Wunderground v.1.15,2013-02-15 12:32:00,
2013-02-15 06:34:00,6.5,2.4,30.27,WNW,289,0.0,1.0,83,0.00,,,0.00,0,Wunderground v.1.15,2013-02-15 12:34:00,
2013-02-15 06:36:00,6.4,2.1,30.27,WNW,289,0.0,2.0,82,0.00,,,0.00,0,Wunderground v.1.15,2013-02-15 12:36:00,
2013-02-15 06:39:00,6.2,1.9,30.27,WNW,289,1.0,2.0,82,0.00,,,0.00,0,Wunderground v.1.15,2013-02-15 12:39:00,
2013-02-15 06:40:00,6.2,1.9,30.28,WNW,289,1.0,1.0,82,0.00,,,0.00,0,Wunderground v.1.15,2013-02-15 12:40:00,
2013-02-15 06:44:00,6.1,2.0,30.28,WNW,289,1.0,1.0,83,0.00,,,0.00,0,Wunderground v.1.15,2013-02-15 12:44:00,
2013-02-15 06:45:00,6.0,1.9,30.28,WNW,289,1.0,1.0,83,0.00,,,0.00,0,Wunderground v.1.15,2013-02-15 12:45:00,
2013-02-15 06:47:00,5.9,1.8,30.28,WNW,289,1.0,1.0,83,0.00,,,0.00,0,Wunderground v.1.15,2013-02-15 12:47:00,
2013-02-15 06:51:00,5.9,1.8,30.28,WNW,289,0.0,0.0,83,0.00,,,0.00,0,Wunderground v.1.15,2013-02-15 12:51:00,
2013-02-15 06:54:00,5.8,1.8,30.28,WNW,289,0.0,0.0,83,0.00,,,0.00,0,Wunderground v.1.15,2013-02-15 12:54:00,
2013-02-15 06:55:00,5.8,1.8,30.28,WNW,289,0.0,0.0,83,0.00,,,0.00,0,Wunderground v.1.15,2013-02-15 12:55:00,
2013-02-15 06:59:00,5.8,1.8,30.28,WNW,289,0.0,0.0,83,0.00,,,0.00,5,Wunderground v.1.15,2013-02-15 12:59:00,
2013-02-15 07:01:00,5.8,1.8,30.28,WNW,289,0.0,0.0,83,0.00,,,0.00,7,Wunderground v.1.15,2013-02-15 13:01:00,
2013-02-15 07:03:00,5.8,2.0,30.28,WNW,289,0.0,1.0,84,0.00,,,0.00,7,Wunderground v.1.15,2013-02-15 13:03:00,
2013-02-15 07:05:00,5.6,1.6,30.27,WNW,289,0.0,1.0,83,0.00,,,0.00,7,Wunderground v.1.15,2013-02-15 13:05:00,
2013-02-15 07:06:00,5.6,1.6,30.28,WNW,289,0.0,1.0,83,0.00,,,0.00,9,Wunderground v.1.15,2013-02-15 13:06:00,
2013-02-15 07:10:00,5.5,1.7,30.28,WNW,289,0.0,0.0,84,0.00,,,0.00,12,Wunderground v.1.15,2013-02-15 13:10:00,
2013-02-15 07:12:00,5.6,1.8,30.28,WNW,289,0.0,0.0,84,0.00,,,0.00,16,Wunderground v.1.15,2013-02-15 13:12:00,
2013-02-15 07:14:00,5.6,1.8,30.28,WNW,289,0.0,0.0,84,0.00,,,0.00,18,Wunderground v.1.15,2013-02-15 13:14:00,
2013-02-15 07:16:00,5.6,1.8,30.28,WNW,289,0.0,0.0,84,0.00,,,0.00,19,Wunderground v.1.15,2013-02-15 13:16:00,
2013-02-15 07:18:00,5.6,1.8,30.28,WNW,289,0.0,0.0,84,0.00,,,0.00,23,Wunderground v.1.15,2013-02-15 13:18:00,
2013-02-15 07:19:00,5.6,1.8,30.28,WNW,289,0.0,0.0,84,0.00,,,0.00,25,Wunderground v.1.15,2013-02-15 13:19:00,
2013-02-15 07:22:00,5.6,1.8,30.28,WNW,289,0.0,0.0,84,0.00,,,0.00,33,Wunderground v.1.15,2013-02-15 13:22:00,
2013-02-15 07:24:00,5.7,1.9,30.28,WNW,289,0.0,1.0,84,0.00,,,0.00,40,Wunderground v.1.15,2013-02-15 13:24:00,
2013-02-15 07:26:00,5.7,1.9,30.29,WNW,289,0.0,1.0,84,0.00,,,0.00,44,Wunderground v.1.15,2013-02-15 13:26:00,
2013-02-15 07:30:00,6.0,2.2,30.29,WNW,289,0.0,0.0,84,0.00,,,0.00,56,Wunderground v.1.15,2013-02-15 13:30:00,
2013-02-15 07:31:00,6.1,2.3,30.29,WNW,289,0.0,0.0,84,0.00,,,0.00,58,Wunderground v.1.15,2013-02-15 13:31:00,
2013-02-15 07:34:00,6.2,2.4,30.29,WNW,289,0.0,0.0,84,0.00,,,0.00,65,Wunderground v.1.15,2013-02-15 13:34:00,
2013-02-15 07:36:00,6.3,2.5,30.29,WNW,289,0.0,0.0,84,0.00,,,0.00,56,Wunderground v.1.15,2013-02-15 13:36:00,
2013-02-15 07:37:00,6.3,2.2,30.29,WNW,289,0.0,0.0,83,0.00,,,0.00,47,Wunderground v.1.15,2013-02-15 13:37:00,
2013-02-15 07:39:00,6.4,2.3,30.29,WNW,289,0.0,0.0,83,0.00,,,0.00,47,Wunderground v.1.15,2013-02-15 13:39:00,
2013-02-15 07:43:00,6.7,2.6,30.29,WNW,289,0.0,0.0,83,0.00,,,0.00,54,Wunderground v.1.15,2013-02-15 13:43:00,
2013-02-15 07:44:00,6.8,3.0,30.29,WNW,289,0.0,0.0,84,0.00,,,0.00,56,Wunderground v.1.15,2013-02-15 13:44:00,
2013-02-15 07:46:00,6.9,2.8,30.29,WNW,289,0.0,0.0,83,0.00,,,0.00,62,Wunderground v.1.15,2013-02-15 13:46:00,
2013-02-15 07:49:00,7.0,2.9,30.29,WNW,289,0.0,0.0,83,0.00,,,0.00,65,Wunderground v.1.15,2013-02-15 13:49:00,
2013-02-15 07:51:00,7.0,2.9,30.29,WNW,289,0.0,0.0,83,0.00,,,0.00,67,Wunderground v.1.15,2013-02-15 13:51:00,
2013-02-15 07:54:00,7.0,2.9,30.29,WNW,289,0.0,0.0,83,0.00,,,0.00,70,Wunderground v.1.15,2013-02-15 13:54:00,
2013-02-15 07:55:00,6.9,2.8,30.29,WNW,289,0.0,0.0,83,0.00,,,0.00,70,Wunderground v.1.15,2013-02-15 13:55:00,
2013-02-15 07:56:00,7.0,2.9,30.29,WNW,289,0.0,0.0,83,0.00,,,0.00,72,Wunderground v.1.15,2013-02-15 13:56:00,
2013-02-15 08:00:00,7.2,3.4,30.30,WNW,289,0.0,0.0,84,0.00,,,0.00,76,Wunderground v.1.15,2013-02-15 14:00:00,
2013-02-15 08:01:00,7.3,3.2,30.30,WNW,289,0.0,0.0,83,0.00,,,0.00,79,Wunderground v.1.15,2013-02-15 14:01:00,
2013-02-15 08:04:00,7.3,3.2,30.30,WNW,289,0.0,0.0,83,0.00,,,0.00,84,Wunderground v.1.15,2013-02-15 14:04:00,
2013-02-15 08:06:00,7.3,3.2,30.30,WNW,289,0.0,1.0,83,0.00,,,0.00,93,Wunderground v.1.15,2013-02-15 14:06:00,
2013-02-15 08:09:00,7.4,3.1,30.30,WNW,289,0.0,1.0,82,0.00,,,0.00,102,Wunderground v.1.15,2013-02-15 14:09:00,
2013-02-15 08:10:00,7.5,3.2,30.30,WNW,289,0.0,1.0,82,0.00,,,0.00,105,Wunderground v.1.15,2013-02-15 14:10:00,
2013-02-15 08:11:00,7.6,3.3,30.30,WNW,289,0.0,1.0,82,0.00,,,0.00,111,Wunderground v.1.15,2013-02-15 14:11:00,
2013-02-15 08:13:00,7.7,3.1,30.30,WNW,289,0.0,1.0,81,0.00,,,0.00,127,Wunderground v.1.15,2013-02-15 14:13:00,
2013-02-15 08:14:00,7.7,3.1,30.30,WNW,289,0.0,1.0,81,0.00,,,0.00,127,Wunderground v.1.15,2013-02-15 14:14:00,
2013-02-15 08:19:00,8.2,3.6,30.30,WNW,289,0.0,2.0,81,0.00,,,0.00,137,Wunderground v.1.15,2013-02-15 14:19:00,
2013-02-15 08:21:00,8.3,3.4,30.30,WNW,289,0.0,0.0,80,0.00,,,0.00,155,Wunderground v.1.15,2013-02-15 14:21:00,
2013-02-15 08:23:00,8.5,3.6,30.30,WNW,289,0.0,0.0,80,0.00,,,0.00,153,Wunderground v.1.15,2013-02-15 14:23:00,
2013-02-15 08:25:00,8.6,3.7,30.30,WNW,289,0.0,1.0,80,0.00,,,0.00,139,Wunderground v.1.15,2013-02-15 14:25:00,
2013-02-15 08:28:00,8.8,3.6,30.30,WNW,289,1.0,2.0,79,0.00,,,0.00,141,Wunderground v.1.15,2013-02-15 14:28:00,
2013-02-15 08:29:00,8.8,3.6,30.30,WNW,289,1.0,2.0,79,0.00,,,0.00,144,Wunderground v.1.15,2013-02-15 14:29:00,
2013-02-15 08:32:00,8.9,3.7,30.30,WNW,289,1.0,1.0,79,0.00,,,0.00,149,Wunderground v.1.15,2013-02-15 14:32:00,
2013-02-15 08:35:00,8.9,3.7,30.31,WNW,289,0.0,1.0,79,0.00,,,0.00,149,Wunderground v.1.15,2013-02-15 14:35:00,
2013-02-15 08:38:00,9.2,4.0,30.31,WNW,289,0.0,1.0,79,0.00,,,0.00,172,Wunderground v.1.15,2013-02-15 14:38:00,
2013-02-15 08:39:00,9.3,4.1,30.31,WNW,289,0.0,1.0,79,0.00,,,0.00,172,Wunderground v.1.15,2013-02-15 14:39:00,
2013-02-15 08:41:00,9.5,4.3,30.31,WNW,289,0.0,0.0,79,0.00,,,0.00,171,Wunderground v.1.15,2013-02-15 14:41:00,
2013-02-15 08:44:00,9.9,4.4,30.31,WNW,289,0.0,0.0,78,0.00,,,0.00,190,Wunderground v.1.15,2013-02-15 14:44:00,
2013-02-15 08:45:00,10.0,4.5,30.31,WNW,289,0.0,0.0,78,0.00,,,0.00,197,Wunderground v.1.15,2013-02-15 14:45:00,
2013-02-15 08:46:00,10.1,4.6,30.30,WNW,289,0.0,0.0,78,0.00,,,0.00,190,Wunderground v.1.15,2013-02-15 14:46:00,
2013-02-15 08:50:00,10.9,5.4,30.31,WNW,289,0.0,0.0,78,0.00,,,0.00,225,Wunderground v.1.15,2013-02-15 14:50:00,
2013-02-15 08:51:00,11.1,5.6,30.31,WNW,289,0.0,0.0,78,0.00,,,0.00,211,Wunderground v.1.15,2013-02-15 14:51:00,
2013-02-15 08:53:00,11.3,5.5,30.31,WNW,289,0.0,0.0,77,0.00,,,0.00,214,Wunderground v.1.15,2013-02-15 14:53:00,
2013-02-15 08:54:00,11.5,5.7,30.31,WNW,289,0.0,0.0,77,0.00,,,0.00,206,Wunderground v.1.15,2013-02-15 14:54:00,
2013-02-15 08:57:00,12.1,6.3,30.31,WNW,289,0.0,0.0,77,0.00,,,0.00,227,Wunderground v.1.15,2013-02-15 14:57:00,
2013-02-15 08:59:00,12.3,6.2,30.31,WNW,289,0.0,0.0,76,0.00,,,0.00,234,Wunderground v.1.15,2013-02-15 14:59:00,
2013-02-15 09:04:00,13.1,6.7,30.31,WNW,289,0.0,0.0,75,0.00,,,0.00,230,Wunderground v.1.15,2013-02-15 15:04:00,
2013-02-15 09:05:00,13.4,7.0,30.31,WNW,289,0.0,0.0,75,0.00,,,0.00,223,Wunderground v.1.15,2013-02-15 15:05:00,
2013-02-15 09:07:00,14.0,7.2,30.31,WNW,289,0.0,2.0,74,0.00,,,0.00,206,Wunderground v.1.15,2013-02-15 15:07:00,
2013-02-15 09:10:00,14.4,7.3,30.31,WNW,289,0.0,0.0,73,0.00,,,0.00,214,Wunderground v.1.15,2013-02-15 15:10:00,
2013-02-15 09:12:00,14.7,7.3,30.30,West,270,1.0,5.0,72,0.00,,,0.00,220,Wunderground v.1.15,2013-02-15 15:12:00,
2013-02-15 09:14:00,15.3,7.9,30.31,West,278,2.0,5.0,72,0.00,,,0.00,237,Wunderground v.1.15,2013-02-15 15:14:00,
2013-02-15 09:17:00,15.8,7.7,30.31,WSW,247,2.0,6.0,70,0.00,,,0.00,432,Wunderground v.1.15,2013-02-15 15:17:00,
2013-02-15 09:19:00,16.2,7.8,30.31,West,281,2.0,6.0,69,0.00,,,0.00,513,Wunderground v.1.15,2013-02-15 15:19:00,
2013-02-15 09:22:00,17.0,8.3,30.30,SW,234,2.0,4.0,68,0.00,,,0.00,255,Wunderground v.1.15,2013-02-15 15:22:00,
2013-02-15 09:27:00,16.8,7.7,30.31,SW,236,2.0,4.0,67,0.00,,,0.00,260,Wunderground v.1.15,2013-02-15 15:27:00,
2013-02-15 09:28:00,16.7,7.6,30.31,WSW,244,2.0,4.0,67,0.00,,,0.00,251,Wunderground v.1.15,2013-02-15 15:28:00,
2013-02-15 09:31:00,16.7,7.6,30.31,WSW,254,2.0,3.0,67,0.00,,,0.00,392,Wunderground v.1.15,2013-02-15 15:31:00,
2013-02-15 09:32:00,16.8,7.7,30.31,WSW,254,2.0,3.0,67,0.00,,,0.00,413,Wunderground v.1.15,2013-02-15 15:32:00,
2013-02-15 09:34:00,17.1,8.0,30.31,West,259,2.0,3.0,67,0.00,,,0.00,373,Wunderground v.1.15,2013-02-15 15:34:00,
2013-02-15 09:35:00,17.3,7.9,30.31,WSW,246,2.0,4.0,66,0.00,,,0.00,431,Wunderground v.1.15,2013-02-15 15:35:00,
2013-02-15 09:36:00,17.3,7.9,30.31,West,268,2.0,4.0,66,0.00,,,0.00,429,Wunderground v.1.15,2013-02-15 15:36:00,
2013-02-15 09:41:00,17.3,7.5,30.31,West,264,3.0,3.0,65,0.00,,,0.00,464,Wunderground v.1.15,2013-02-15 15:41:00,
2013-02-15 09:42:00,17.4,7.6,30.31,SW,236,4.0,5.0,65,0.00,,,0.00,475,Wunderground v.1.15,2013-02-15 15:42:00,
2013-02-15 09:43:00,17.4,7.6,30.31,NW,315,4.0,5.0,65,0.00,,,0.00,492,Wunderground v.1.15,2013-02-15 15:43:00,
2013-02-15 09:47:00,17.7,7.9,30.31,SW,233,4.0,5.0,65,0.00,,,0.00,475,Wunderground v.1.15,2013-02-15 15:47:00,
2013-02-15 09:48:00,17.7,7.9,30.31,West,274,4.0,6.0,65,0.00,,,0.00,406,Wunderground v.1.15,2013-02-15 15:48:00,
2013-02-15 09:49:00,17.7,7.9,30.31,West,266,4.0,6.0,65,0.00,,,0.00,406,Wunderground v.1.15,2013-02-15 15:49:00,
2013-02-15 09:53:00,17.7,7.9,30.31,SSW,204,3.0,4.0,65,0.00,,,0.00,341,Wunderground v.1.15,2013-02-15 15:53:00,
2013-02-15 09:54:00,17.6,7.8,30.31,WSW,257,3.0,9.0,65,0.00,,,0.00,341,Wunderground v.1.15,2013-02-15 15:54:00,
2013-02-15 09:55:00,17.6,7.8,30.31,NW,326,3.0,9.0,65,0.00,,,0.00,360,Wunderground v.1.15,2013-02-15 15:55:00,
2013-02-15 09:59:00,17.7,7.9,30.31,NW,318,4.0,9.0,65,0.00,,,0.00,362,Wunderground v.1.15,2013-02-15 15:59:00,
2013-02-15 10:01:00,17.8,8.0,30.31,WNW,287,4.0,4.0,65,0.00,,,0.00,371,Wunderground v.1.15,2013-02-15 16:01:00,
2013-02-15 10:04:00,17.8,8.0,30.31,WSW,250,3.0,4.0,65,0.00,,,0.00,302,Wunderground v.1.15,2013-02-15 16:04:00,
2013-02-15 10:06:00,17.7,7.9,30.31,SW,234,3.0,6.0,65,0.00,,,0.00,265,Wunderground v.1.15,2013-02-15 16:06:00,
2013-02-15 10:07:00,17.5,7.4,30.31,SW,228,3.0,6.0,64,0.00,,,0.00,260,Wunderground v.1.15,2013-02-15 16:07:00,
2013-02-15 10:09:00,17.4,7.6,30.31,WSW,246,3.0,6.0,65,0.00,,,0.00,309,Wunderground v.1.15,2013-02-15 16:09:00,
2013-02-15 10:10:00,17.5,8.1,30.31,SW,234,3.0,4.0,66,0.00,,,0.00,311,Wunderground v.1.15,2013-02-15 16:10:00,
2013-02-15 10:15:00,17.6,8.2,30.31,SW,231,4.0,4.0,66,0.00,,,0.00,366,Wunderground v.1.15,2013-02-15 16:15:00,
2013-02-15 10:16:00,17.7,8.3,30.31,SW,231,3.0,4.0,66,0.00,,,0.00,357,Wunderground v.1.15,2013-02-15 16:16:00,
2013-02-15 10:17:00,17.9,8.5,30.31,West,264,3.0,6.0,66,0.00,,,0.00,390,Wunderground v.1.15,2013-02-15 16:17:00,
2013-02-15 10:18:00,18.0,8.2,30.31,West,277,3.0,6.0,65,0.00,,,0.00,529,Wunderground v.1.15,2013-02-15 16:18:00,
2013-02-15 10:20:00,18.1,8.3,30.31,SW,235,3.0,3.0,65,0.00,,,0.00,497,Wunderground v.1.15,2013-02-15 16:20:00,
2013-02-15 10:21:00,18.1,8.3,30.31,SW,235,2.0,3.0,65,0.00,,,0.00,497,Wunderground v.1.15,2013-02-15 16:21:00,
2013-02-15 10:23:00,18.3,8.8,30.31,SW,233,2.0,3.0,66,0.00,,,0.00,503,Wunderground v.1.15,2013-02-15 16:23:00,
2013-02-15 10:26:00,18.5,8.7,30.31,West,267,2.0,6.0,65,0.00,,,0.00,504,Wunderground v.1.15,2013-02-15 16:26:00,
2013-02-15 10:27:00,18.4,8.6,30.31,South,180,3.0,6.0,65,0.00,,,0.00,508,Wunderground v.1.15,2013-02-15 16:27:00,
2013-02-15 10:30:00,18.4,8.2,30.31,NW,321,3.0,3.0,64,0.00,,,0.00,510,Wunderground v.1.15,2013-02-15 16:30:00,
2013-02-15 10:31:00,18.2,8.1,30.31,NW,321,3.0,3.0,64,0.00,,,0.00,513,Wunderground v.1.15,2013-02-15 16:31:00,
2013-02-15 10:33:00,18.2,8.1,30.31,NNW,330,4.0,6.0,64,0.00,,,0.00,515,Wunderground v.1.15,2013-02-15 16:33:00,
2013-02-15 10:37:00,18.7,8.5,30.30,WNW,283,4.0,6.0,64,0.00,,,0.00,520,Wunderground v.1.15,2013-02-15 16:37:00,
2013-02-15 10:38:00,18.7,8.5,30.30,NNW,329,4.0,6.0,64,0.00,,,0.00,520,Wunderground v.1.15,2013-02-15 16:38:00,
2013-02-15 10:40:00,18.9,8.7,30.31,West,265,3.0,3.0,64,0.00,,,0.00,524,Wunderground v.1.15,2013-02-15 16:40:00,
2013-02-15 10:42:00,19.0,8.8,30.31,SW,235,3.0,4.0,64,0.00,,,0.00,529,Wunderground v.1.15,2013-02-15 16:42:00,
2013-02-15 10:44:00,18.9,8.7,30.30,SW,229,3.0,4.0,64,0.00,,,0.00,533,Wunderground v.1.15,2013-02-15 16:44:00,
2013-02-15 10:45:00,18.7,8.5,30.31,WSW,239,3.0,6.0,64,0.00,,,0.00,534,Wunderground v.1.15,2013-02-15 16:45:00,
2013-02-15 10:50:00,18.9,9.1,30.31,SW,230,5.0,6.0,65,0.00,,,0.00,538,Wunderground v.1.15,2013-02-15 16:50:00,
2013-02-15 10:52:00,18.8,8.6,30.31,SW,228,5.0,6.0,64,0.00,,,0.00,541,Wunderground v.1.15,2013-02-15 16:52:00,
2013-02-15 10:53:00,18.8,8.6,30.31,SW,236,5.0,8.0,64,0.00,,,0.00,541,Wunderground v.1.15,2013-02-15 16:53:00,
2013-02-15 10:56:00,18.8,9.0,30.31,West,273,6.0,8.0,65,0.00,,,0.00,545,Wunderground v.1.15,2013-02-15 16:56:00,
2013-02-15 10:58:00,18.9,8.7,30.31,SW,221,5.0,12.0,64,0.00,,,0.00,547,Wunderground v.1.15,2013-02-15 16:58:00,
2013-02-15 10:59:00,18.9,8.7,30.31,SW,236,6.0,12.0,64,0.00,,,0.00,550,Wunderground v.1.15,2013-02-15 16:59:00,
2013-02-15 11:04:00,19.1,8.9,30.31,WSW,240,5.0,7.0,64,0.00,,,0.00,554,Wunderground v.1.15,2013-02-15 17:04:00,
2013-02-15 11:05:00,19.2,9.0,30.31,WNW,303,5.0,7.0,64,0.00,,,0.00,554,Wunderground v.1.15,2013-02-15 17:05:00,
2013-02-15 11:06:00,19.3,9.4,30.31,NW,319,5.0,7.0,65,0.00,,,0.00,554,Wunderground v.1.15,2013-02-15 17:06:00,
2013-02-15 11:08:00,19.3,8.4,30.31,WSW,258,5.0,7.0,62,0.00,,,0.00,555,Wunderground v.1.15,2013-02-15 17:08:00,
2013-02-15 11:10:00,19.4,8.8,30.31,WSW,253,4.0,4.0,63,0.00,,,0.00,561,Wunderground v.1.15,2013-02-15 17:10:00,
2013-02-15 11:14:00,20.2,10.0,30.31,WSW,244,2.0,5.0,64,0.00,,,0.00,563,Wunderground v.1.15,2013-02-15 17:14:00,
2013-02-15 11:15:00,20.0,9.8,30.31,WSW,244,2.0,5.0,64,0.00,,,0.00,568,Wunderground v.1.15,2013-02-15 17:15:00,
2013-02-15 11:19:00,19.8,9.2,30.31,SW,234,3.0,7.0,63,0.00,,,0.00,570,Wunderground v.1.15,2013-02-15 17:19:00,
2013-02-15 11:20:00,19.7,9.1,30.31,SW,234,3.0,7.0,63,0.00,,,0.00,571,Wunderground v.1.15,2013-02-15 17:20:00,
2013-02-15 11:21:00,19.7,9.1,30.31,WSW,255,4.0,7.0,63,0.00,,,0.00,575,Wunderground v.1.15,2013-02-15 17:21:00,
2013-02-15 11:24:00,19.5,8.6,30.31,WSW,245,4.0,7.0,62,0.00,,,0.00,577,Wunderground v.1.15,2013-02-15 17:24:00,
2013-02-15 11:25:00,19.3,8.4,30.31,SW,233,4.0,7.0,62,0.00,,,0.00,575,Wunderground v.1.15,2013-02-15 17:25:00,
2013-02-15 11:26:00,19.3,8.4,30.31,WSW,242,5.0,7.0,62,0.00,,,0.00,580,Wunderground v.1.15,2013-02-15 17:26:00,
2013-02-15 11:29:00,19.7,8.8,30.31,SW,236,5.0,7.0,62,0.00,,,0.00,578,Wunderground v.1.15,2013-02-15 17:29:00,
2013-02-15 11:30:00,19.8,9.2,30.31,WSW,237,5.0,5.0,63,0.00,,,0.00,584,Wunderground v.1.15,2013-02-15 17:30:00,
2013-02-15 11:31:00,19.9,9.3,30.31,WNW,283,5.0,5.0,63,0.00,,,0.00,582,Wunderground v.1.15,2013-02-15 17:31:00,
2013-02-15 11:36:00,20.1,9.5,30.30,SW,219,4.0,5.0,63,0.00,,,0.00,592,Wunderground v.1.15,2013-02-15 17:36:00,
2013-02-15 11:37:00,20.1,9.5,30.30,WSW,258,4.0,5.0,63,0.00,,,0.00,589,Wunderground v.1.15,2013-02-15 17:37:00,
2013-02-15 11:39:00,19.9,9.0,30.31,SW,233,3.0,5.0,62,0.00,,,0.00,577,Wunderground v.1.15,2013-02-15 17:39:00,
2013-02-15 11:41:00,19.5,8.2,30.31,SW,222,3.0,5.0,61,0.00,,,0.00,591,Wunderground v.1.15,2013-02-15 17:41:00,
2013-02-15 11:42:00,19.5,8.6,30.31,SW,217,3.0,6.0,62,0.00,,,0.00,594,Wunderground v.1.15,2013-02-15 17:42:00,
2013-02-15 11:47:00,20.1,10.2,30.30,West,272,4.0,6.0,65,0.00,,,0.00,596,Wunderground v.1.15,2013-02-15 17:47:00,
2013-02-15 11:49:00,19.9,9.3,30.30,SW,228,5.0,6.0,63,0.00,,,0.00,599,Wunderground v.1.15,2013-02-15 17:49:00,
2013-02-15 11:51:00,19.5,8.6,30.30,SW,221,6.0,10.0,62,0.00,,,0.00,596,Wunderground v.1.15,2013-02-15 17:51:00,
2013-02-15 11:52:00,19.5,8.6,30.30,West,278,6.0,10.0,62,0.00,,,0.00,601,Wunderground v.1.15,2013-02-15 17:52:00,
2013-02-15 11:54:00,19.8,9.2,30.30,SW,224,6.0,10.0,63,0.00,,,0.00,605,Wunderground v.1.15,2013-02-15 17:54:00,
2013-02-15 11:56:00,19.8,8.9,30.30,SW,232,7.0,12.0,62,0.00,,,0.00,606,Wunderground v.1.15,2013-02-15 17:56:00,
2013-02-15 11:59:00,19.7,8.0,30.30,SW,232,8.0,12.0,60,0.00,,,0.00,610,Wunderground v.1.15,2013-02-15 17:59:00,
2013-02-15 12:01:00,20.0,8.7,30.30,West,259,7.0,8.0,61,0.00,,,0.00,612,Wunderground v.1.15,2013-02-15 18:01:00,
2013-02-15 12:02:00,20.2,8.9,30.30,SW,232,7.0,8.0,61,0.00,,,0.00,617,Wunderground v.1.15,2013-02-15 18:02:00,
2013-02-15 12:05:00,19.9,9.0,30.30,SW,227,6.0,8.0,62,0.00,,,0.00,624,Wunderground v.1.15,2013-02-15 18:05:00,
2013-02-15 12:09:00,19.8,8.9,30.30,West,273,5.0,8.0,62,0.00,,,0.00,635,Wunderground v.1.15,2013-02-15 18:09:00,
2013-02-15 12:14:00,20.4,9.8,30.30,SW,227,5.0,7.0,63,0.00,,,0.00,661,Wunderground v.1.15,2013-02-15 18:14:00,
2013-02-15 12:16:00,20.1,9.2,30.30,SW,217,5.0,7.0,62,0.00,,,0.00,682,Wunderground v.1.15,2013-02-15 18:16:00,
2013-02-15 12:18:00,20.2,9.2,30.30,SW,219,5.0,7.0,62,0.00,,,0.00,687,Wunderground v.1.15,2013-02-15 18:18:00,
2013-02-15 12:22:00,20.0,9.4,30.30,SW,218,6.0,8.0,63,0.00,,,0.00,696,Wunderground v.1.15,2013-02-15 18:22:00,
2013-02-15 12:23:00,20.0,9.4,30.30,SSW,205,6.0,8.0,63,0.00,,,0.00,698,Wunderground v.1.15,2013-02-15 18:23:00,
2013-02-15 12:25:00,19.9,9.0,30.30,WSW,242,7.0,8.0,62,0.00,,,0.00,696,Wunderground v.1.15,2013-02-15 18:25:00,
2013-02-15 12:27:00,20.2,9.6,30.30,SW,224,7.0,11.0,63,0.00,,,0.00,700,Wunderground v.1.15,2013-02-15 18:27:00,
2013-02-15 12:29:00,20.3,9.3,30.29,WSW,248,7.0,11.0,62,0.00,,,0.00,698,Wunderground v.1.15,2013-02-15 18:29:00,
2013-02-15 12:32:00,20.4,9.8,30.30,SW,232,6.0,9.0,63,0.00,,,0.00,698,Wunderground v.1.15,2013-02-15 18:32:00,
2013-02-15 12:33:00,20.4,9.4,30.29,SW,224,6.0,9.0,62,0.00,,,0.00,700,Wunderground v.1.15,2013-02-15 18:33:00,
2013-02-15 12:36:00,20.4,9.1,30.29,SW,234,6.0,9.0,61,0.00,,,0.00,701,Wunderground v.1.15,2013-02-15 18:36:00,
2013-02-15 12:37:00,20.5,9.5,30.29,WNW,290,5.0,9.0,62,0.00,,,0.00,703,Wunderground v.1.15,2013-02-15 18:37:00,
2013-02-15 12:40:00,20.4,8.7,30.29,West,263,6.0,7.0,60,0.00,,,0.00,724,Wunderground v.1.15,2013-02-15 18:40:00,
2013-02-15 12:42:00,20.3,9.0,30.29,SW,214,6.0,8.0,61,0.00,,,0.00,737,Wunderground v.1.15,2013-02-15 18:42:00,
2013-02-15 12:44:00,20.4,9.4,30.29,SW,231,6.0,10.0,62,0.00,,,0.00,714,Wunderground v.1.15,2013-02-15 18:44:00,
2013-02-15 12:50:00,20.4,9.1,30.29,SSW,210,7.0,8.0,61,0.00,,,0.00,700,Wunderground v.1.15,2013-02-15 18:50:00,
2013-02-15 12:51:00,20.4,9.1,30.29,SSW,202,7.0,8.0,61,0.00,,,0.00,673,Wunderground v.1.15,2013-02-15 18:51:00,
2013-02-15 12:54:00,20.3,8.6,30.29,SW,232,7.0,8.0,60,0.00,,,0.00,606,Wunderground v.1.15,2013-02-15 18:54:00,
2013-02-15 12:55:00,20.3,9.0,30.29,WSW,237,7.0,8.0,61,0.00,,,0.00,610,Wunderground v.1.15,2013-02-15 18:55:00,
2013-02-15 12:59:00,20.3,9.0,30.29,SW,230,7.0,8.0,61,0.00,,,0.00,582,Wunderground v.1.15,2013-02-15 18:59:00,
2013-02-15 13:00:00,20.3,9.0,30.29,SW,232,6.0,6.0,61,0.00,,,0.00,545,Wunderground v.1.15,2013-02-15 19:00:00,
2013-02-15 13:01:00,20.4,9.4,30.29,NW,326,6.0,6.0,62,0.00,,,0.00,540,Wunderground v.1.15,2013-02-15 19:01:00,
2013-02-15 13:04:00,20.4,9.1,30.29,SW,232,5.0,8.0,61,0.00,,,0.00,612,Wunderground v.1.15,2013-02-15 19:04:00,
2013-02-15 13:07:00,20.1,8.8,30.29,SW,236,6.0,10.0,61,0.00,,,0.00,594,Wunderground v.1.15,2013-02-15 19:07:00,
2013-02-15 13:09:00,20.1,8.8,30.29,SSW,204,7.0,10.0,61,0.00,,,0.00,499,Wunderground v.1.15,2013-02-15 19:09:00,
2013-02-15 13:10:00,20.2,8.9,30.29,SSW,211,7.0,8.0,61,0.00,,,0.00,485,Wunderground v.1.15,2013-02-15 19:10:00,
2013-02-15 13:12:00,20.2,9.2,30.29,WSW,241,7.0,8.0,62,0.00,,,0.00,436,Wunderground v.1.15,2013-02-15 19:12:00,
2013-02-15 13:15:00,20.3,9.3,30.29,West,272,7.0,8.0,62,0.00,,,0.00,432,Wunderground v.1.15,2013-02-15 19:15:00,
2013-02-15 13:19:00,20.1,9.2,30.29,West,263,5.0,8.0,62,0.00,,,0.00,457,Wunderground v.1.15,2013-02-15 19:19:00,
2013-02-15 13:20:00,20.2,9.2,30.29,SW,231,5.0,5.0,62,0.00,,,0.00,483,Wunderground v.1.15,2013-02-15 19:20:00,
2013-02-15 13:21:00,20.2,9.2,30.29,West,279,5.0,5.0,62,0.00,,,0.00,464,Wunderground v.1.15,2013-02-15 19:21:00,
2013-02-15 13:25:00,20.1,8.4,30.29,SSW,207,5.0,7.0,60,0.00,,,0.00,473,Wunderground v.1.15,2013-02-15 19:25:00,
2013-02-15 13:26:00,20.1,8.4,30.29,SW,232,6.0,12.0,60,0.00,,,0.00,434,Wunderground v.1.15,2013-02-15 19:26:00,
2013-02-15 13:27:00,19.9,8.6,30.29,SSW,213,6.0,12.0,61,0.00,,,0.00,494,Wunderground v.1.15,2013-02-15 19:27:00,
2013-02-15 13:28:00,19.9,8.6,30.29,SW,228,6.0,12.0,61,0.00,,,0.00,480,Wunderground v.1.15,2013-02-15 19:28:00,
2013-02-15 13:31:00,20.1,8.4,30.29,WSW,254,6.0,7.0,60,0.00,,,0.00,469,Wunderground v.1.15,2013-02-15 19:31:00,
2013-02-15 13:34:00,20.2,8.9,30.29,West,274,6.0,7.0,61,0.00,,,0.00,448,Wunderground v.1.15,2013-02-15 19:34:00,
2013-02-15 13:36:00,20.1,8.4,30.29,SW,227,5.0,10.0,60,0.00,,,0.00,510,Wunderground v.1.15,2013-02-15 19:36:00,
2013-02-15 13:41:00,19.7,8.0,30.28,SSW,200,6.0,7.0,60,0.00,,,0.00,438,Wunderground v.1.15,2013-02-15 19:41:00,
2013-02-15 13:42:00,19.7,8.0,30.28,SW,233,6.0,7.0,60,0.00,,,0.00,485,Wunderground v.1.15,2013-02-15 19:42:00,
2013-02-15 13:46:00,20.0,8.7,30.28,SW,218,7.0,8.0,61,0.00,,,0.00,568,Wunderground v.1.15,2013-02-15 19:46:00,
2013-02-15 13:49:00,20.2,8.9,30.28,SW,233,7.0,8.0,61,0.00,,,0.00,466,Wunderground v.1.15,2013-02-15 19:49:00,
2013-02-15 13:51:00,20.4,9.1,30.28,SW,228,7.0,7.0,61,0.00,,,0.00,545,Wunderground v.1.15,2013-02-15 19:51:00,
2013-02-15 13:52:00,20.4,9.1,30.28,SW,215,7.0,7.0,61,0.00,,,0.00,534,Wunderground v.1.15,2013-02-15 19:52:00,
2013-02-15 13:54:00,20.3,8.6,30.28,WSW,251,6.0,10.0,60,0.00,,,0.00,413,Wunderground v.1.15,2013-02-15 19:54:00,
2013-02-15 13:56:00,20.0,8.3,30.28,West,262,7.0,10.0,60,0.00,,,0.00,359,Wunderground v.1.15,2013-02-15 19:56:00,
2013-02-15 13:59:00,19.8,8.5,30.28,SW,234,7.0,12.0,61,0.00,,,0.00,489,Wunderground v.1.15,2013-02-15 19:59:00,
2013-02-15 14:02:00,19.7,8.4,30.28,WSW,238,8.0,9.0,61,0.00,,,0.00,564,Wunderground v.1.15,2013-02-15 20:02:00,
2013-02-15 14:03:00,20.2,9.6,30.29,WNW,286,8.0,9.0,63,0.00,,,0.00,577,Wunderground v.1.15,2013-02-15 20:03:00,
2013-02-15 14:08:00,20.3,8.6,30.29,SSW,209,7.0,9.0,60,0.00,,,0.00,575,Wunderground v.1.15,2013-02-15 20:08:00,
2013-02-15 14:09:00,20.3,8.6,30.29,SW,221,7.0,10.0,60,0.00,,,0.00,570,Wunderground v.1.15,2013-02-15 20:09:00,
2013-02-15 14:14:00,20.2,8.9,30.29,SW,236,7.0,9.0,61,0.00,,,0.00,559,Wunderground v.1.15,2013-02-15 20:14:00,
2013-02-15 14:15:00,20.1,8.8,30.29,SW,215,8.0,9.0,61,0.00,,,0.00,554,Wunderground v.1.15,2013-02-15 20:15:00,
2013-02-15 14:20:00,19.9,8.6,30.29,WSW,242,9.0,11.0,61,0.00,,,0.00,520,Wunderground v.1.15,2013-02-15 20:20:00,
2013-02-15 14:21:00,19.9,9.0,30.29,SW,223,8.0,11.0,62,0.00,,,0.00,522,Wunderground v.1.15,2013-02-15 20:21:00,
2013-02-15 14:24:00,20.1,8.8,30.28,WSW,238,8.0,12.0,61,0.00,,,0.00,524,Wunderground v.1.15,2013-02-15 20:24:00,
2013-02-15 14:27:00,20.1,8.8,30.29,WSW,244,8.0,12.0,61,0.00,,,0.00,339,Wunderground v.1.15,2013-02-15 20:27:00,
2013-02-15 14:29:00,19.9,8.6,30.29,WSW,238,7.0,12.0,61,0.00,,,0.00,367,Wunderground v.1.15,2013-02-15 20:29:00,
2013-02-15 14:30:00,19.8,8.5,30.29,SW,219,7.0,8.0,61,0.00,,,0.00,336,Wunderground v.1.15,2013-02-15 20:30:00,
2013-02-15 14:33:00,19.9,9.0,30.29,SW,229,7.0,10.0,62,0.00,,,0.00,339,Wunderground v.1.15,2013-02-15 20:33:00,
2013-02-15 14:34:00,19.8,8.9,30.29,SW,224,6.0,10.0,62,0.00,,,0.00,339,Wunderground v.1.15,2013-02-15 20:34:00,
2013-02-15 14:35:00,19.8,8.9,30.29,WSW,237,6.0,10.0,62,0.00,,,0.00,332,Wunderground v.1.15,2013-02-15 20:35:00,
2013-02-15 14:38:00,19.7,8.8,30.29,SW,235,5.0,10.0,62,0.00,,,0.00,267,Wunderground v.1.15,2013-02-15 20:38:00,
2013-02-15 14:39:00,19.7,8.8,30.29,SW,232,5.0,12.0,62,0.00,,,0.00,260,Wunderground v.1.15,2013-02-15 20:39:00,
2013-02-15 14:40:00,19.6,8.7,30.29,SW,230,6.0,8.0,62,0.00,,,0.00,234,Wunderground v.1.15,2013-02-15 20:40:00,
2013-02-15 14:43:00,19.2,8.3,30.29,SW,216,6.0,10.0,62,0.00,,,0.00,276,Wunderground v.1.15,2013-02-15 20:43:00,
2013-02-15 14:45:00,19.2,8.3,30.29,SW,234,6.0,10.0,62,0.00,,,0.00,338,Wunderground v.1.15,2013-02-15 20:45:00,
2013-02-15 14:47:00,19.4,8.5,30.29,SSW,202,6.0,10.0,62,0.00,,,0.00,443,Wunderground v.1.15,2013-02-15 20:47:00,
2013-02-15 14:49:00,19.6,8.7,30.29,SW,228,7.0,10.0,62,0.00,,,0.00,439,Wunderground v.1.15,2013-02-15 20:49:00,
2013-02-15 14:50:00,19.7,8.8,30.29,WSW,240,6.0,6.0,62,0.00,,,0.00,431,Wunderground v.1.15,2013-02-15 20:50:00,
2013-02-15 14:53:00,20.0,9.1,30.29,SW,234,6.0,7.0,62,0.00,,,0.00,413,Wunderground v.1.15,2013-02-15 20:53:00,
2013-02-15 14:57:00,20.0,8.7,30.29,SW,228,6.0,11.0,61,0.00,,,0.00,415,Wunderground v.1.15,2013-02-15 20:57:00,
2013-02-15 14:58:00,19.9,8.6,30.29,WSW,237,6.0,11.0,61,0.00,,,0.00,404,Wunderground v.1.15,2013-02-15 20:58:00,
2013-02-15 14:59:00,19.9,8.6,30.29,WSW,242,6.0,11.0,61,0.00,,,0.00,446,Wunderground v.1.15,2013-02-15 20:59:00,
2013-02-15 15:02:00,20.3,9.3,30.29,WSW,242,5.0,6.0,62,0.00,,,0.00,446,Wunderground v.1.15,2013-02-15 21:02:00,
2013-02-15 15:03:00,20.3,9.0,30.29,WNW,287,5.0,6.0,61,0.00,,,0.00,179,Wunderground v.1.15,2013-02-15 21:03:00,
2013-02-15 15:06:00,20.3,9.0,30.29,WNW,299,5.0,7.0,61,0.00,,,0.00,345,Wunderground v.1.15,2013-02-15 21:06:00,
2013-02-15 15:07:00,20.4,9.1,30.29,WNW,295,4.0,7.0,61,0.00,,,0.00,345,Wunderground v.1.15,2013-02-15 21:07:00,
2013-02-15 15:12:00,20.3,8.6,30.29,NNW,335,4.0,5.0,60,0.00,,,0.00,316,Wunderground v.1.15,2013-02-15 21:12:00,
2013-02-15 15:13:00,20.2,8.5,30.29,West,269,4.0,5.0,60,0.00,,,0.00,316,Wunderground v.1.15,2013-02-15 21:13:00,
2013-02-15 15:15:00,20.2,8.5,30.29,WSW,252,4.0,5.0,60,0.00,,,0.00,105,Wunderground v.1.15,2013-02-15 21:15:00,
2013-02-15 15:17:00,19.8,8.5,30.29,WSW,242,4.0,9.0,61,0.00,,,0.00,116,Wunderground v.1.15,2013-02-15 21:17:00,
2013-02-15 15:19:00,19.6,8.3,30.29,SW,230,4.0,9.0,61,0.00,,,0.00,142,Wunderground v.1.15,2013-02-15 21:19:00,
2013-02-15 15:24:00,19.4,8.5,30.29,SW,223,4.0,7.0,62,0.00,,,0.00,102,Wunderground v.1.15,2013-02-15 21:24:00,
2013-02-15 15:26:00,19.4,8.5,30.29,West,274,5.0,7.0,62,0.00,,,0.00,90,Wunderground v.1.15,2013-02-15 21:26:00,
2013-02-15 15:29:00,19.5,8.6,30.29,WSW,240,4.0,7.0,62,0.00,,,0.00,77,Wunderground v.1.15,2013-02-15 21:29:00,
2013-02-15 15:30:00,19.5,8.6,30.30,West,271,4.0,4.0,62,0.00,,,0.00,77,Wunderground v.1.15,2013-02-15 21:30:00,
2013-02-15 15:31:00,19.4,8.5,30.30,WSW,253,4.0,6.0,62,0.00,,,0.00,79,Wunderground v.1.15,2013-02-15 21:31:00,
2013-02-15 15:32:00,19.4,8.1,30.30,NW,305,4.0,6.0,61,0.00,,,0.00,83,Wunderground v.1.15,2013-02-15 21:32:00,
2013-02-15 15:37:00,19.3,8.0,30.30,WSW,251,3.0,6.0,61,0.00,,,0.00,84,Wunderground v.1.15,2013-02-15 21:37:00,
2013-02-15 15:39:00,19.2,8.3,30.30,West,267,3.0,6.0,62,0.00,,,0.00,83,Wunderground v.1.15,2013-02-15 21:39:00,
2013-02-15 15:43:00,19.2,8.3,30.30,WSW,248,3.0,5.0,62,0.00,,,0.00,105,Wunderground v.1.15,2013-02-15 21:43:00,
2013-02-15 15:45:00,19.1,8.6,30.30,SW,235,3.0,5.0,63,0.00,,,0.00,185,Wunderground v.1.15,2013-02-15 21:45:00,
2013-02-15 15:47:00,19.3,8.8,30.30,NW,319,3.0,5.0,63,0.00,,,0.00,302,Wunderground v.1.15,2013-02-15 21:47:00,
2013-02-15 15:50:00,19.6,9.0,30.30,SW,228,3.0,4.0,63,0.00,,,0.00,248,Wunderground v.1.15,2013-02-15 21:50:00,
2013-02-15 15:52:00,19.8,9.2,30.30,WNW,303,3.0,4.0,63,0.00,,,0.00,218,Wunderground v.1.15,2013-02-15 21:52:00,
2013-02-15 15:53:00,19.9,9.3,30.30,WSW,248,3.0,4.0,63,0.00,,,0.00,260,Wunderground v.1.15,2013-02-15 21:53:00,
2013-02-15 15:59:00,20.6,9.3,30.30,NW,309,2.0,4.0,61,0.00,,,0.00,176,Wunderground v.1.15,2013-02-15 21:59:00,
2013-02-15 16:01:00,20.5,8.8,30.30,NW,317,2.0,10.0,60,0.00,,,0.00,223,Wunderground v.1.15,2013-02-15 22:01:00,
2013-02-15 16:04:00,20.4,8.3,30.31,NW,304,2.0,10.0,59,0.00,,,0.00,237,Wunderground v.1.15,2013-02-15 22:04:00,
2013-02-15 16:06:00,20.4,8.3,30.31,NW,323,3.0,10.0,59,0.00,,,0.00,225,Wunderground v.1.15,2013-02-15 22:06:00,
2013-02-15 16:08:00,20.1,7.7,30.30,WNW,298,5.0,10.0,58,0.00,,,0.00,91,Wunderground v.1.15,2013-02-15 22:08:00,
2013-02-15 16:10:00,19.9,7.5,30.31,North,355,6.0,9.0,58,0.00,,,0.00,88,Wunderground v.1.15,2013-02-15 22:10:00,
2013-02-15 16:13:00,19.4,7.0,30.31,NW,317,7.0,9.0,58,0.00,,,0.00,128,Wunderground v.1.15,2013-02-15 22:13:00,
2013-02-15 16:14:00,19.3,6.9,30.31,NNW,327,8.0,9.0,58,0.00,,,0.00,83,Wunderground v.1.15,2013-02-15 22:14:00,
2013-02-15 16:16:00,19.2,6.8,30.31,West,279,8.0,9.0,58,0.00,,,0.00,54,Wunderground v.1.15,2013-02-15 22:16:00,
2013-02-15 16:18:00,19.1,6.7,30.31,NW,316,8.0,9.0,58,0.00,,,0.00,51,Wunderground v.1.15,2013-02-15 22:18:00,
2013-02-15 16:20:00,19.1,6.7,30.31,WNW,300,8.0,9.0,58,0.00,,,0.00,95,Wunderground v.1.15,2013-02-15 22:20:00,
2013-02-15 16:22:00,19.0,7.0,30.31,NW,314,7.0,9.0,59,0.00,,,0.00,120,Wunderground v.1.15,2013-02-15 22:22:00,
2013-02-15 16:26:00,19.0,6.6,30.31,North,5,6.0,10.0,58,0.00,,,0.00,125,Wunderground v.1.15,2013-02-15 22:26:00,
2013-02-15 16:28:00,19.0,7.0,30.31,NW,306,5.0,10.0,59,0.00,,,0.00,102,Wunderground v.1.15,2013-02-15 22:28:00,
2013-02-15 16:30:00,19.0,7.0,30.31,WNW,292,4.0,4.0,59,0.00,,,0.00,100,Wunderground v.1.15,2013-02-15 22:30:00,
2013-02-15 16:34:00,19.0,7.0,30.32,WNW,296,5.0,7.0,59,0.00,,,0.00,90,Wunderground v.1.15,2013-02-15 22:34:00,
2013-02-15 16:36:00,18.9,6.9,30.32,NW,315,4.0,9.0,59,0.00,,,0.00,77,Wunderground v.1.15,2013-02-15 22:36:00,
2013-02-15 16:38:00,18.9,6.9,30.32,WNW,290,4.0,9.0,59,0.00,,,0.00,77,Wunderground v.1.15,2013-02-15 22:38:00,
2013-02-15 16:39:00,18.9,6.9,30.32,WNW,297,4.0,9.0,59,0.00,,,0.00,77,Wunderground v.1.15,2013-02-15 22:39:00,
2013-02-15 16:43:00,18.7,6.7,30.32,NNE,14,5.0,8.0,59,0.00,,,0.00,67,Wunderground v.1.15,2013-02-15 22:43:00,
2013-02-15 16:44:00,18.7,6.7,30.32,NW,311,4.0,8.0,59,0.00,,,0.00,65,Wunderground v.1.15,2013-02-15 22:44:00,
2013-02-15 16:46:00,18.6,7.0,30.32,NW,317,5.0,8.0,60,0.00,,,0.00,60,Wunderground v.1.15,2013-02-15 22:46:00,
2013-02-15 16:49:00,18.6,7.0,30.32,WNW,293,4.0,8.0,60,0.00,,,0.00,54,Wunderground v.1.15,2013-02-15 22:49:00,
2013-02-15 16:50:00,18.6,7.0,30.32,NW,311,4.0,4.0,60,0.00,,,0.00,53,Wunderground v.1.15,2013-02-15 22:50:00,
2013-02-15 16:53:00,18.4,6.8,30.32,NW,323,3.0,7.0,60,0.00,,,0.00,39,Wunderground v.1.15,2013-02-15 22:53:00,
2013-02-15 16:54:00,18.4,6.8,30.32,NNW,344,4.0,7.0,60,0.00,,,0.00,33,Wunderground v.1.15,2013-02-15 22:54:00,
2013-02-15 16:55:00,18.4,6.8,30.32,WNW,300,4.0,7.0,60,0.00,,,0.00,32,Wunderground v.1.15,2013-02-15 22:55:00,
2013-02-15 16:58:00,18.3,6.7,30.32,NW,321,3.0,7.0,60,0.00,,,0.00,32,Wunderground v.1.15,2013-02-15 22:58:00,
2013-02-15 17:01:00,18.2,6.6,30.32,WNW,300,4.0,4.0,60,0.00,,,0.00,32,Wunderground v.1.15,2013-02-15 23:01:00,
2013-02-15 17:04:00,18.1,6.5,30.32,NW,307,4.0,4.0,60,0.00,,,0.00,26,Wunderground v.1.15,2013-02-15 23:04:00,
2013-02-15 17:06:00,18.1,6.9,30.32,NW,312,4.0,5.0,61,0.00,,,0.00,25,Wunderground v.1.15,2013-02-15 23:06:00,
2013-02-15 17:08:00,18.0,6.8,30.33,West,271,4.0,5.0,61,0.00,,,0.00,21,Wunderground v.1.15,2013-02-15 23:08:00,
2013-02-15 17:10:00,18.0,6.8,30.32,SW,229,4.0,6.0,61,0.00,,,0.00,19,Wunderground v.1.15,2013-02-15 23:10:00,
2013-02-15 17:13:00,17.9,6.7,30.33,West,270,4.0,6.0,61,0.00,,,0.00,16,Wunderground v.1.15,2013-02-15 23:13:00,
2013-02-15 17:15:00,17.9,6.3,30.32,WNW,289,4.0,6.0,60,0.00,,,0.00,16,Wunderground v.1.15,2013-02-15 23:15:00,
2013-02-15 17:17:00,17.8,6.2,30.33,NW,321,4.0,6.0,60,0.00,,,0.00,14,Wunderground v.1.15,2013-02-15 23:17:00,
2013-02-15 17:18:00,17.8,6.2,30.33,NNW,329,4.0,6.0,60,0.00,,,0.00,12,Wunderground v.1.15,2013-02-15 23:18:00,
2013-02-15 17:21:00,17.7,6.2,30.33,WNW,284,3.0,8.0,60,0.00,,,0.00,12,Wunderground v.1.15,2013-02-15 23:21:00,
2013-02-15 17:23:00,17.6,6.1,30.33,NNW,338,4.0,8.0,60,0.00,,,0.00,11,Wunderground v.1.15,2013-02-15 23:23:00,
2013-02-15 17:26:00,17.5,6.3,30.33,WNW,302,4.0,8.0,61,0.00,,,0.00,9,Wunderground v.1.15,2013-02-15 23:26:00,
2013-02-15 17:30:00,17.4,5.9,30.33,NW,317,5.0,7.0,60,0.00,,,0.00,7,Wunderground v.1.15,2013-02-15 23:30:00,
2013-02-15 17:32:00,17.3,5.8,30.33,NW,313,4.0,7.0,60,0.00,,,0.00,5,Wunderground v.1.15,2013-02-15 23:32:00,
2013-02-15 17:37:00,17.1,5.6,30.33,WNW,292,4.0,9.0,60,0.00,,,0.00,0,Wunderground v.1.15,2013-02-15 23:37:00,
2013-02-15 17:39:00,17.1,5.6,30.33,WNW,296,4.0,9.0,60,0.00,,,0.00,0,Wunderground v.1.15,2013-02-15 23:39:00,
2013-02-15 17:44:00,16.9,5.4,30.33,West,269,4.0,5.0,60,0.00,,,0.00,0,Wunderground v.1.15,2013-02-15 23:44:00,
2013-02-15 17:45:00,16.8,5.3,30.33,West,269,4.0,5.0,60,0.00,,,0.00,0,Wunderground v.1.15,2013-02-15 23:45:00,
2013-02-15 17:46:00,16.8,5.3,30.33,NW,314,3.0,5.0,60,0.00,,,0.00,0,Wunderground v.1.15,2013-02-15 23:46:00,
2013-02-15 17:49:00,16.7,5.6,30.33,NNW,328,2.0,5.0,61,0.00,,,0.00,0,Wunderground v.1.15,2013-02-15 23:49:00,
2013-02-15 17:50:00,16.7,5.6,30.33,NW,304,2.0,5.0,61,0.00,,,0.00,0,Wunderground v.1.15,2013-02-15 23:50:00,
2013-02-15 17:51:00,16.6,5.5,30.33,WSW,246,2.0,5.0,61,0.00,,,0.00,0,Wunderground v.1.15,2013-02-15 23:51:00,
2013-02-15 17:52:00,16.6,5.5,30.33,WNW,292,2.0,5.0,61,0.00,,,0.00,0,Wunderground v.1.15,2013-02-15 23:52:00,
2013-02-15 17:54:00,16.5,5.4,30.33,WNW,291,2.0,5.0,61,0.00,,,0.00,0,Wunderground v.1.15,2013-02-15 23:54:00,
2013-02-15 17:58:00,16.4,5.3,30.33,WNW,296,3.0,5.0,61,0.00,,,0.00,0,Wunderground v.1.15,2013-02-15 23:58:00,
2013-02-15 17:59:00,16.3,5.2,30.33,WNW,286,3.0,8.0,61,0.00,,,0.00,0,Wunderground v.1.15,2013-02-15 23:59:00,
2013-02-15 18:00:00,16.3,5.2,30.33,West,269,4.0,4.0,61,0.00,,,0.00,0,Wunderground v.1.15,2013-02-16 00:00:00,
2013-02-15 18:04:00,16.2,5.1,30.33,WNW,284,3.0,4.0,61,0.00,,,0.00,0,Wunderground v.1.15,2013-02-16 00:04:00,
2013-02-15 18:06:00,16.1,5.0,30.33,West,263,3.0,6.0,61,0.00,,,0.00,0,Wunderground v.1.15,2013-02-16 00:06:00,
2013-02-15 18:07:00,16.1,5.0,30.33,WNW,286,3.0,6.0,61,0.00,,,0.00,0,Wunderground v.1.15,2013-02-16 00:07:00,
2013-02-15 18:09:00,16.0,4.9,30.34,WNW,287,3.0,6.0,61,0.00,,,0.00,0,Wunderground v.1.15,2013-02-16 00:09:00,
2013-02-15 18:13:00,15.9,4.8,30.34,West,269,3.0,6.0,61,0.00,,,0.00,0,Wunderground v.1.15,2013-02-16 00:13:00,
2013-02-15 18:14:00,15.9,4.8,30.34,West,269,3.0,6.0,61,0.00,,,0.00,0,Wunderground v.1.15,2013-02-16 00:14:00,
2013-02-15 18:15:00,15.8,4.7,30.34,West,269,3.0,6.0,61,0.00,,,0.00,0,Wunderground v.1.15,2013-02-16 00:15:00,
2013-02-15 18:16:00,15.8,4.7,30.34,WNW,283,3.0,6.0,61,0.00,,,0.00,0,Wunderground v.1.15,2013-02-16 00:16:00,
2013-02-15 18:21:00,15.6,4.5,30.34,WNW,301,2.0,3.0,61,0.00,,,0.00,0,Wunderground v.1.15,2013-02-16 00:21:00,
2013-02-15 18:22:00,15.6,4.5,30.34,WNW,301,2.0,6.0,61,0.00,,,0.00,0,Wunderground v.1.15,2013-02-16 00:22:00,
2013-02-15 18:24:00,15.5,4.4,30.34,WNW,298,2.0,6.0,61,0.00,,,0.00,0,Wunderground v.1.15,2013-02-16 00:24:00,
2013-02-15 18:25:00,15.5,4.4,30.34,NW,304,2.0,6.0,61,0.00,,,0.00,0,Wunderground v.1.15,2013-02-16 00:25:00,
2013-02-15 18:29:00,15.4,4.3,30.34,NW,304,2.0,6.0,61,0.00,,,0.00,0,Wunderground v.1.15,2013-02-16 00:29:00,
2013-02-15 18:31:00,15.3,4.6,30.34,NW,310,2.0,3.0,62,0.00,,,0.00,0,Wunderground v.1.15,2013-02-16 00:31:00,
2013-02-15 18:35:00,15.2,4.5,30.34,NW,305,2.0,7.0,62,0.00,,,0.00,0,Wunderground v.1.15,2013-02-16 00:35:00,
2013-02-15 18:36:00,15.2,4.5,30.34,WNW,292,2.0,7.0,62,0.00,,,0.00,0,Wunderground v.1.15,2013-02-16 00:36:00,
2013-02-15 18:39:00,15.1,4.4,30.34,WSW,258,3.0,7.0,62,0.00,,,0.00,0,Wunderground v.1.15,2013-02-16 00:39:00,
2013-02-15 18:43:00,15.0,4.3,30.34,West,259,3.0,4.0,62,0.00,,,0.00,0,Wunderground v.1.15,2013-02-16 00:43:00,
2013-02-15 18:45:00,15.0,4.3,30.34,West,259,3.0,4.0,62,0.00,,,0.00,0,Wunderground v.1.15,2013-02-16 00:45:00,
2013-02-15 18:46:00,15.0,4.3,30.34,West,260,2.0,4.0,62,0.00,,,0.00,0,Wunderground v.1.15,2013-02-16 00:46:00,
2013-02-15 18:49:00,14.9,4.2,30.34,West,260,2.0,4.0,62,0.00,,,0.00,0,Wunderground v.1.15,2013-02-16 00:49:00,
2013-02-15 18:50:00,14.8,4.1,30.34,West,265,2.0,3.0,62,0.00,,,0.00,0,Wunderground v.1.15,2013-02-16 00:50:00,
2013-02-15 18:53:00,14.8,4.1,30.34,West,269,2.0,3.0,62,0.00,,,0.00,0,Wunderground v.1.15,2013-02-16 00:53:00,
2013-02-15 18:56:00,14.7,4.0,30.34,WNW,290,2.0,3.0,62,0.00,,,0.00,0,Wunderground v.1.15,2013-02-16 00:56:00,
2013-02-15 18:59:00,14.7,4.4,30.34,WNW,296,2.0,4.0,63,0.00,,,0.00,0,Wunderground v.1.15,2013-02-16 00:59:00,
2013-02-15 19:00:00,14.6,4.3,30.34,NW,315,2.0,2.0,63,0.00,,,0.00,0,Wunderground v.1.15,2013-02-16 01:00:00,
2013-02-15 19:01:00,14.6,4.3,30.34,WNW,286,2.0,3.0,63,0.00,,,0.00,0,Wunderground v.1.15,2013-02-16 01:01:00,
2013-02-15 19:03:00,14.5,4.2,30.34,WNW,296,2.0,5.0,63,0.00,,,0.00,0,Wunderground v.1.15,2013-02-16 01:03:00,
2013-02-15 19:06:00,14.4,4.1,30.34,WNW,296,2.0,5.0,63,0.00,,,0.00,0,Wunderground v.1.15,2013-02-16 01:06:00,
2013-02-15 19:07:00,14.3,4.0,30.34,WNW,296,2.0,5.0,63,0.00,,,0.00,0,Wunderground v.1.15,2013-02-16 01:07:00,
2013-02-15 19:08:00,14.2,3.9,30.34,WNW,296,2.0,5.0,63,0.00,,,0.00,0,Wunderground v.1.15,2013-02-16 01:08:00,
2013-02-15 19:12:00,14.1,4.1,30.34,WNW,296,2.0,2.0,64,0.00,,,0.00,0,Wunderground v.1.15,2013-02-16 01:12:00,
2013-02-15 19:14:00,14.0,3.7,30.34,NW,326,1.0,2.0,63,0.00,,,0.00,0,Wunderground v.1.15,2013-02-16 01:14:00,
2013-02-15 19:15:00,14.0,4.1,30.34,WNW,296,2.0,3.0,64,0.00,,,0.00,0,Wunderground v.1.15,2013-02-16 01:15:00,
2013-02-15 19:18:00,13.9,4.0,30.34,WNW,300,2.0,5.0,64,0.00,,,0.00,0,Wunderground v.1.15,2013-02-16 01:18:00,
2013-02-15 19:19:00,13.8,3.9,30.34,WNW,300,2.0,5.0,64,0.00,,,0.00,0,Wunderground v.1.15,2013-02-16 01:19:00,
2013-02-15 19:22:00,13.7,3.8,30.35,NW,325,3.0,5.0,64,0.00,,,0.00,0,Wunderground v.1.15,2013-02-16 01:22:00,
2013-02-15 19:24:00,13.6,3.7,30.35,NW,309,3.0,5.0,64,0.00,,,0.00,0,Wunderground v.1.15,2013-02-16 01:24:00,
2013-02-15 19:25:00,13.6,3.7,30.35,North,355,3.0,5.0,64,0.00,,,0.00,0,Wunderground v.1.15,2013-02-16 01:25:00,
2013-02-15 19:28:00,13.5,3.6,30.35,NW,306,3.0,5.0,64,0.00,,,0.00,0,Wunderground v.1.15,2013-02-16 01:28:00,
2013-02-15 19:29:00,13.5,3.6,30.35,NNW,334,4.0,6.0,64,0.00,,,0.00,0,Wunderground v.1.15,2013-02-16 01:29:00,
2013-02-15 19:34:00,13.4,3.5,30.35,WSW,254,3.0,4.0,64,0.00,,,0.00,0,Wunderground v.1.15,2013-02-16 01:34:00,
2013-02-15 19:35:00,13.4,3.5,30.35,WNW,302,3.0,4.0,64,0.00,,,0.00,0,Wunderground v.1.15,2013-02-16 01:35:00,
2013-02-15 19:39:00,13.2,3.3,30.35,NNW,333,2.0,4.0,64,0.00,,,0.00,0,Wunderground v.1.15,2013-02-16 01:39:00,
2013-02-15 19:41:00,13.1,3.2,30.35,West,269,2.0,3.0,64,0.00,,,0.00,0,Wunderground v.1.15,2013-02-16 01:41:00,
2013-02-15 19:43:00,13.0,3.4,30.35,WNW,284,2.0,3.0,65,0.00,,,0.00,0,Wunderground v.1.15,2013-02-16 01:43:00,
2013-02-15 19:44:00,13.0,3.4,30.35,WNW,284,2.0,3.0,65,0.00,,,0.00,0,Wunderground v.1.15,2013-02-16 01:44:00,
2013-02-15 19:48:00,12.8,3.2,30.35,WNW,286,2.0,3.0,65,0.00,,,0.00,0,Wunderground v.1.15,2013-02-16 01:48:00,
2013-02-15 19:49:00,12.8,3.2,30.35,WNW,286,2.0,3.0,65,0.00,,,0.00,0,Wunderground v.1.15,2013-02-16 01:49:00,
2013-02-15 19:52:00,12.7,3.1,30.35,WNW,286,2.0,2.0,65,0.00,,,0.00,0,Wunderground v.1.15,2013-02-16 01:52:00,
2013-02-15 19:54:00,12.6,3.1,30.35,WNW,287,2.0,3.0,65,0.00,,,0.00,0,Wunderground v.1.15,2013-02-16 01:54:00,
2013-02-15 19:58:00,12.5,3.0,30.35,WNW,289,2.0,4.0,65,0.00,,,0.00,0,Wunderground v.1.15,2013-02-16 01:58:00,
2013-02-15 20:00:00,12.5,3.0,30.35,WNW,289,2.0,2.0,65,0.00,,,0.00,0,Wunderground v.1.15,2013-02-16 02:00:00,
2013-02-15 20:02:00,12.3,2.8,30.35,NNW,337,2.0,2.0,65,0.00,,,0.00,0,Wunderground v.1.15,2013-02-16 02:02:00,
2013-02-15 20:04:00,12.3,3.1,30.35,NW,306,2.0,2.0,66,0.00,,,0.00,0,Wunderground v.1.15,2013-02-16 02:04:00,
2013-02-15 20:05:00,12.3,3.1,30.35,NW,306,2.0,2.0,66,0.00,,,0.00,0,Wunderground v.1.15,2013-02-16 02:05:00,
2013-02-15 20:07:00,12.3,3.1,30.35,NW,305,2.0,2.0,66,0.00,,,0.00,0,Wunderground v.1.15,2013-02-16 02:07:00,
2013-02-15 20:09:00,12.3,3.1,30.35,WNW,295,2.0,2.0,66,0.00,,,0.00,0,Wunderground v.1.15,2013-02-16 02:09:00,
2013-02-15 20:10:00,12.3,3.1,30.35,WNW,296,1.0,2.0,66,0.00,,,0.00,0,Wunderground v.1.15,2013-02-16 02:10:00,
2013-02-15 20:11:00,12.2,3.0,30.35,WNW,292,2.0,2.0,66,0.00,,,0.00,0,Wunderground v.1.15,2013-02-16 02:11:00,
2013-02-15 20:15:00,12.2,2.7,30.35,WNW,293,1.0,3.0,65,0.00,,,0.00,0,Wunderground v.1.15,2013-02-16 02:15:00,
2013-02-15 20:18:00,12.3,2.8,30.35,West,277,2.0,3.0,65,0.00,,,0.00,0,Wunderground v.1.15,2013-02-16 02:18:00,
2013-02-15 20:19:00,12.3,3.1,30.35,West,277,2.0,3.0,66,0.00,,,0.00,0,Wunderground v.1.15,2013-02-16 02:19:00,
2013-02-15 20:20:00,12.3,3.1,30.35,West,277,1.0,1.0,66,0.00,,,0.00,0,Wunderground v.1.15,2013-02-16 02:20:00,
2013-02-15 20:25:00,12.2,2.7,30.35,WNW,287,1.0,3.0,65,0.00,,,0.00,0,Wunderground v.1.15,2013-02-16 02:25:00,
2013-02-15 20:26:00,12.2,2.7,30.35,WNW,287,1.0,4.0,65,0.00,,,0.00,0,Wunderground v.1.15,2013-02-16 02:26:00,
2013-02-15 20:30:00,12.2,2.7,30.35,WNW,300,2.0,4.0,65,0.00,,,0.00,0,Wunderground v.1.15,2013-02-16 02:30:00,
2013-02-15 20:34:00,12.1,2.6,30.35,WNW,296,2.0,4.0,65,0.00,,,0.00,0,Wunderground v.1.15,2013-02-16 02:34:00,
2013-02-15 20:36:00,12.1,2.6,30.35,WNW,294,2.0,5.0,65,0.00,,,0.00,0,Wunderground v.1.15,2013-02-16 02:36:00,
2013-02-15 20:39:00,12.1,2.6,30.35,NW,310,2.0,5.0,65,0.00,,,0.00,0,Wunderground v.1.15,2013-02-16 02:39:00,
2013-02-15 20:41:00,12.1,2.6,30.35,WNW,300,2.0,3.0,65,0.00,,,0.00,0,Wunderground v.1.15,2013-02-16 02:41:00,
2013-02-15 20:43:00,12.0,2.5,30.35,WNW,300,2.0,3.0,65,0.00,,,0.00,0,Wunderground v.1.15,2013-02-16 02:43:00,
2013-02-15 20:44:00,12.0,2.5,30.35,WNW,300,2.0,3.0,65,0.00,,,0.00,0,Wunderground v.1.15,2013-02-16 02:44:00,
2013-02-15 20:46:00,12.0,2.5,30.35,WNW,300,2.0,4.0,65,0.00,,,0.00,0,Wunderground v.1.15,2013-02-16 02:46:00,
2013-02-15 20:48:00,11.9,2.4,30.35,WNW,298,1.0,4.0,65,0.00,,,0.00,0,Wunderground v.1.15,2013-02-16 02:48:00,
2013-02-15 20:50:00,11.9,2.4,30.35,WNW,298,1.0,1.0,65,0.00,,,0.00,0,Wunderground v.1.15,2013-02-16 02:50:00,
2013-02-15 20:53:00,11.8,2.3,30.35,WNW,298,1.0,2.0,65,0.00,,,0.00,0,Wunderground v.1.15,2013-02-16 02:53:00,
2013-02-15 20:54:00,11.8,2.3,30.35,WNW,298,1.0,2.0,65,0.00,,,0.00,0,Wunderground v.1.15,2013-02-16 02:54:00,
2013-02-15 20:56:00,11.8,2.3,30.35,WNW,298,2.0,3.0,65,0.00,,,0.00,0,Wunderground v.1.15,2013-02-16 02:56:00,
2013-02-15 20:57:00,11.8,2.3,30.35,WNW,298,1.0,3.0,65,0.00,,,0.00,0,Wunderground v.1.15,2013-02-16 02:57:00,
2013-02-15 21:01:00,11.8,2.3,30.36,WNW,298,1.0,2.0,65,0.00,,,0.00,0,Wunderground v.1.15,2013-02-16 03:01:00,
2013-02-15 21:02:00,11.8,2.3,30.35,NW,311,1.0,2.0,65,0.00,,,0.00,0,Wunderground v.1.15,2013-02-16 03:02:00,
2013-02-15 21:04:00,11.7,2.2,30.35,NW,311,1.0,2.0,65,0.00,,,0.00,0,Wunderground v.1.15,2013-02-16 03:04:00,
2013-02-15 21:06:00,11.7,2.2,30.36,NW,311,1.0,2.0,65,0.00,,,0.00,0,Wunderground v.1.15,2013-02-16 03:06:00,
2013-02-15 21:08:00,11.7,2.2,30.36,NW,311,1.0,2.0,65,0.00,,,0.00,0,Wunderground v.1.15,2013-02-16 03:08:00,
2013-02-15 21:10:00,11.7,2.2,30.35,WNW,295,1.0,1.0,65,0.00,,,0.00,0,Wunderground v.1.15,2013-02-16 03:10:00,
2013-02-15 21:12:00,11.7,2.2,30.36,WNW,295,1.0,2.0,65,0.00,,,0.00,0,Wunderground v.1.15,2013-02-16 03:12:00,
2013-02-15 21:14:00,11.7,2.2,30.35,WNW,295,1.0,2.0,65,0.00,,,0.00,0,Wunderground v.1.15,2013-02-16 03:14:00,
2013-02-15 21:15:00,11.7,2.2,30.35,WNW,295,1.0,4.0,65,0.00,,,0.00,0,Wunderground v.1.15,2013-02-16 03:15:00,
2013-02-15 21:17:00,11.7,2.2,30.35,WNW,294,2.0,4.0,65,0.00,,,0.00,0,Wunderground v.1.15,2013-02-16 03:17:00,
2013-02-15 21:19:00,11.7,2.2,30.35,WNW,294,2.0,4.0,65,0.00,,,0.00,0,Wunderground v.1.15,2013-02-16 03:19:00,
2013-02-15 21:20:00,11.7,2.2,30.35,WNW,294,1.0,1.0,65,0.00,,,0.00,0,Wunderground v.1.15,2013-02-16 03:20:00,
2013-02-15 21:26:00,11.7,2.5,30.35,WNW,294,1.0,1.0,66,0.00,,,0.00,0,Wunderground v.1.15,2013-02-16 03:26:00,
2013-02-15 21:27:00,11.6,2.4,30.35,WNW,294,1.0,1.0,66,0.00,,,0.00,0,Wunderground v.1.15,2013-02-16 03:27:00,
2013-02-15 21:31:00,11.6,2.4,30.35,WNW,294,1.0,1.0,66,0.00,,,0.00,0,Wunderground v.1.15,2013-02-16 03:31:00,
2013-02-15 21:32:00,11.6,2.4,30.35,WNW,294,1.0,2.0,66,0.00,,,0.00,0,Wunderground v.1.15,2013-02-16 03:32:00,
2013-02-15 21:35:00,11.5,2.3,30.35,NW,319,1.0,4.0,66,0.00,,,0.00,0,Wunderground v.1.15,2013-02-16 03:35:00,
2013-02-15 21:37:00,11.5,2.3,30.35,NW,310,1.0,4.0,66,0.00,,,0.00,0,Wunderground v.1.15,2013-02-16 03:37:00,
2013-02-15 21:38:00,11.4,2.2,30.35,NW,310,2.0,4.0,66,0.00,,,0.00,0,Wunderground v.1.15,2013-02-16 03:38:00,
2013-02-15 21:39:00,11.4,2.2,30.35,NW,310,2.0,4.0,66,0.00,,,0.00,0,Wunderground v.1.15,2013-02-16 03:39:00,
2013-02-15 21:41:00,11.4,2.2,30.35,NW,310,1.0,2.0,66,0.00,,,0.00,0,Wunderground v.1.15,2013-02-16 03:41:00,
2013-02-15 21:44:00,11.4,2.2,30.35,NW,310,1.0,2.0,66,0.00,,,0.00,0,Wunderground v.1.15,2013-02-16 03:44:00,
2013-02-15 21:48:00,11.3,2.1,30.35,WNW,303,1.0,2.0,66,0.00,,,0.00,0,Wunderground v.1.15,2013-02-16 03:48:00,
2013-02-15 21:50:00,11.2,2.0,30.35,NW,320,1.0,1.0,66,0.00,,,0.00,0,Wunderground v.1.15,2013-02-16 03:50:00,
2013-02-15 21:52:00,11.2,2.0,30.35,NW,320,1.0,1.0,66,0.00,,,0.00,0,Wunderground v.1.15,2013-02-16 03:52:00,
2013-02-15 21:54:00,11.2,2.0,30.35,NW,320,1.0,1.0,66,0.00,,,0.00,0,Wunderground v.1.15,2013-02-16 03:54:00,
2013-02-15 21:55:00,11.1,1.9,30.35,NW,320,1.0,1.0,66,0.00,,,0.00,0,Wunderground v.1.15,2013-02-16 03:55:00,
2013-02-15 21:59:00,11.0,1.9,30.35,NW,320,1.0,2.0,66,0.00,,,0.00,0,Wunderground v.1.15,2013-02-16 03:59:00,
2013-02-15 22:00:00,11.0,1.9,30.35,NW,320,1.0,3.0,66,0.00,,,0.00,0,Wunderground v.1.15,2013-02-16 04:00:00,
2013-02-15 22:04:00,10.7,1.9,30.35,NW,320,0.0,3.0,67,0.00,,,0.00,0,Wunderground v.1.15,2013-02-16 04:04:00,
2013-02-15 22:05:00,10.7,1.9,30.35,NW,320,0.0,3.0,67,0.00,,,0.00,0,Wunderground v.1.15,2013-02-16 04:05:00,
2013-02-15 22:08:00,10.5,2.0,30.35,NW,320,0.0,3.0,68,0.00,,,0.00,0,Wunderground v.1.15,2013-02-16 04:08:00,
2013-02-15 22:10:00,10.4,1.9,30.35,NW,320,0.0,1.0,68,0.00,,,0.00,0,Wunderground v.1.15,2013-02-16 04:10:00,
2013-02-15 22:11:00,10.3,1.8,30.35,NW,320,0.0,1.0,68,0.00,,,0.00,0,Wunderground v.1.15,2013-02-16 04:11:00,
2013-02-15 22:13:00,10.2,1.7,30.35,NW,320,0.0,1.0,68,0.00,,,0.00,0,Wunderground v.1.15,2013-02-16 04:13:00,
2013-02-15 22:15:00,10.2,2.0,30.35,NW,320,0.0,2.0,69,0.00,,,0.00,0,Wunderground v.1.15,2013-02-16 04:15:00,
2013-02-15 22:17:00,10.1,1.9,30.35,NW,320,0.0,2.0,69,0.00,,,0.00,0,Wunderground v.1.15,2013-02-16 04:17:00,
2013-02-15 22:21:00,9.9,1.8,30.35,NW,320,0.0,0.0,69,0.00,,,0.00,0,Wunderground v.1.15,2013-02-16 04:21:00,
2013-02-15 22:22:00,9.9,1.8,30.35,NW,320,0.0,0.0,69,0.00,,,0.00,0,Wunderground v.1.15,2013-02-16 04:22:00,
2013-02-15 22:24:00,9.7,1.9,30.35,NW,320,0.0,1.0,70,0.00,,,0.00,0,Wunderground v.1.15,2013-02-16 04:24:00,
2013-02-15 22:25:00,9.6,1.8,30.35,NW,320,0.0,1.0,70,0.00,,,0.00,0,Wunderground v.1.15,2013-02-16 04:25:00,
2013-02-15 22:29:00,9.1,1.6,30.35,NW,320,0.0,1.0,71,0.00,,,0.00,0,Wunderground v.1.15,2013-02-16 04:29:00,
2013-02-15 22:30:00,8.9,1.4,30.35,NW,320,0.0,0.0,71,0.00,,,0.00,0,Wunderground v.1.15,2013-02-16 04:30:00,
2013-02-15 22:32:00,8.5,1.0,30.35,NW,320,0.0,0.0,71,0.00,,,0.00,0,Wunderground v.1.15,2013-02-16 04:32:00,
2013-02-15 22:36:00,7.9,1.0,30.35,NW,320,0.0,0.0,73,0.00,,,0.00,0,Wunderground v.1.15,2013-02-16 04:36:00,
2013-02-15 22:38:00,7.8,1.2,30.35,NW,320,0.0,0.0,74,0.00,,,0.00,0,Wunderground v.1.15,2013-02-16 04:38:00,
2013-02-15 22:40:00,7.8,1.2,30.35,NW,320,0.0,0.0,74,0.00,,,0.00,0,Wunderground v.1.15,2013-02-16 04:40:00,
2013-02-15 22:41:00,7.8,1.5,30.35,NW,320,0.0,0.0,75,0.00,,,0.00,0,Wunderground v.1.15,2013-02-16 04:41:00,
2013-02-15 22:44:00,7.6,1.3,30.35,NW,320,0.0,0.0,75,0.00,,,0.00,0,Wunderground v.1.15,2013-02-16 04:44:00,
2013-02-15 22:46:00,7.5,1.2,30.35,NW,320,0.0,0.0,75,0.00,,,0.00,0,Wunderground v.1.15,2013-02-16 04:46:00,
2013-02-15 22:47:00,7.4,1.4,30.35,NW,320,0.0,0.0,76,0.00,,,0.00,0,Wunderground v.1.15,2013-02-16 04:47:00,
2013-02-15 22:49:00,7.5,1.5,30.35,NW,320,0.0,0.0,76,0.00,,,0.00,0,Wunderground v.1.15,2013-02-16 04:49:00,
2013-02-15 22:52:00,7.6,1.9,30.35,NW,320,0.0,0.0,77,0.00,,,0.00,0,Wunderground v.1.15,2013-02-16 04:52:00,
2013-02-15 22:53:00,7.8,2.1,30.35,NW,320,0.0,0.0,77,0.00,,,0.00,0,Wunderground v.1.15,2013-02-16 04:53:00,
2013-02-15 22:59:00,7.7,1.4,30.35,NW,320,0.0,0.0,75,0.00,,,0.00,0,Wunderground v.1.15,2013-02-16 04:59:00,
2013-02-15 23:00:00,7.7,1.4,30.35,NW,320,0.0,0.0,75,0.00,,,0.00,0,Wunderground v.1.15,2013-02-16 05:00:00,
2013-02-15 23:01:00,7.7,1.7,30.35,NW,320,0.0,0.0,76,0.00,,,0.00,0,Wunderground v.1.15,2013-02-16 05:01:00,
2013-02-15 23:02:00,7.8,1.8,30.35,NW,320,0.0,0.0,76,0.00,,,0.00,0,Wunderground v.1.15,2013-02-16 05:02:00,
2013-02-15 23:04:00,7.7,1.4,30.35,NW,320,0.0,0.0,75,0.00,,,0.00,0,Wunderground v.1.15,2013-02-16 05:04:00,
2013-02-15 23:05:00,7.6,1.3,30.35,NW,320,0.0,0.0,75,0.00,,,0.00,0,Wunderground v.1.15,2013-02-16 05:05:00,
2013-02-15 23:07:00,7.3,1.0,30.35,NW,320,0.0,0.0,75,0.00,,,0.00,0,Wunderground v.1.15,2013-02-16 05:07:00,
2013-02-15 23:11:00,7.0,1.0,30.35,NW,320,0.0,0.0,76,0.00,,,0.00,0,Wunderground v.1.15,2013-02-16 05:11:00,
2013-02-15 23:12:00,6.9,0.9,30.35,NW,320,0.0,0.0,76,0.00,,,0.00,0,Wunderground v.1.15,2013-02-16 05:12:00,
2013-02-15 23:14:00,7.1,1.1,30.35,NW,320,0.0,0.0,76,0.00,,,0.00,0,Wunderground v.1.15,2013-02-16 05:14:00,
2013-02-15 23:18:00,7.4,1.7,30.34,NW,320,0.0,2.0,77,0.00,,,0.00,0,Wunderground v.1.15,2013-02-16 05:18:00,
2013-02-15 23:19:00,7.5,1.8,30.34,NW,320,0.0,2.0,77,0.00,,,0.00,0,Wunderground v.1.15,2013-02-16 05:19:00,
2013-02-15 23:21:00,7.7,1.7,30.34,NW,320,0.0,0.0,76,0.00,,,0.00,0,Wunderground v.1.15,2013-02-16 05:21:00,
2013-02-15 23:25:00,7.2,1.2,30.34,NW,320,0.0,0.0,76,0.00,,,0.00,0,Wunderground v.1.15,2013-02-16 05:25:00,
2013-02-15 23:26:00,7.1,1.1,30.34,NW,320,0.0,0.0,76,0.00,,,0.00,0,Wunderground v.1.15,2013-02-16 05:26:00,
2013-02-15 23:27:00,7.1,1.1,30.34,NW,320,0.0,0.0,76,0.00,,,0.00,0,Wunderground v.1.15,2013-02-16 05:27:00,
2013-02-15 23:31:00,6.7,1.0,30.35,NW,320,0.0,0.0,77,0.00,,,0.00,0,Wunderground v.1.15,2013-02-16 05:31:00,
2013-02-15 23:34:00,6.6,0.9,30.35,NW,320,0.0,0.0,77,0.00,,,0.00,0,Wunderground v.1.15,2013-02-16 05:34:00,
2013-02-15 23:37:00,6.4,0.7,30.35,NW,320,0.0,0.0,77,0.00,,,0.00,0,Wunderground v.1.15,2013-02-16 05:37:00,
2013-02-15 23:39:00,6.2,0.5,30.34,NW,320,0.0,1.0,77,0.00,,,0.00,0,Wunderground v.1.15,2013-02-16 05:39:00,
2013-02-15 23:42:00,5.8,0.1,30.35,NW,320,0.0,3.0,77,0.00,,,0.00,0,Wunderground v.1.15,2013-02-16 05:42:00,
2013-02-15 23:43:00,5.8,0.1,30.35,NW,320,1.0,3.0,77,0.00,,,0.00,0,Wunderground v.1.15,2013-02-16 05:43:00,
2013-02-15 23:44:00,5.8,0.1,30.35,NW,320,1.0,3.0,77,0.00,,,0.00,0,Wunderground v.1.15,2013-02-16 05:44:00,
2013-02-15 23:47:00,5.6,-0.1,30.35,NW,320,1.0,3.0,77,0.00,,,0.00,0,Wunderground v.1.15,2013-02-16 05:47:00,
2013-02-15 23:49:00,5.5,-0.1,30.35,NW,319,1.0,4.0,77,0.00,,,0.00,0,Wunderground v.1.15,2013-02-16 05:49:00,
2013-02-15 23:52:00,5.4,-0.2,30.35,WNW,298,2.0,3.0,77,0.00,,,0.00,0,Wunderground v.1.15,2013-02-16 05:52:00,
2013-02-15 23:54:00,5.4,-0.2,30.35,WNW,298,2.0,3.0,77,0.00,,,0.00,0,Wunderground v.1.15,2013-02-16 05:54:00,
2013-02-15 23:56:00,5.4,-0.2,30.35,WNW,298,2.0,3.0,77,0.00,,,0.00,0,Wunderground v.1.15,2013-02-16 05:56:00,
2013-02-15 23:58:00,5.2,-0.4,30.35,WNW,295,2.0,3.0,77,0.00,,,0.00,0,Wunderground v.1.15,2013-02-16 05:58:00,